GFSNGP_850_spd_000.txt.gz
Wind_Speed
2 3 3 4 6 8 7 4 6 1 5 4 6 7 11 11 11 19 21 20 18 14 9 4 5 7 12 16 20 21 21 22 21 22 25 27 28 30 30 30 31 32 33 34
2 4 3 3 4 6 5 4 6 2 10 4 8 5 1 3 16 25 24 21 17 13 9 7 5 9 15 18 20 21 20 20 22 25 27 28 28 29 29 30 30 31 31 32
2 3 5 5 5 5 4 4 5 4 5 4 5 5 6 5 17 25 25 21 18 14 8 4 9 14 16 18 18 16 18 20 22 25 26 26 27 28 29 30 31 33 33 32
2 2 1 0 4 6 5 3 2 4 6 3 3 4 3 1 14 21 23 20 15 8 4 7 14 15 16 16 15 18 21 23 24 25 26 27 28 29 31 32 33 34 34 33
3 2 5 2 2 3 3 2 2 4 2 1 1 4 5 4 12 16 19 16 10 4 6 14 16 17 16 14 18 21 23 24 24 26 27 29 30 32 32 34 35 34 33 33
2 3 5 2 2 2 1 2 5 3 4 4 3 4 4 6 10 17 16 9 3 7 11 17 18 16 16 19 21 22 24 24 24 25 27 29 30 32 33 33 35 34 34 31
3 2 6 5 7 1 4 3 6 11 12 12 2 6 10 8 10 10 8 6 8 12 18 25 21 17 18 20 22 23 24 25 25 26 28 30 32 32 34 35 36 36 36 34
3 2 7 3 1 3 4 5 7 9 10 9 8 7 8 11 13 12 10 10 11 15 21 23 15 17 18 20 22 23 24 26 27 29 30 32 32 34 35 36 37 38 37 35
7 5 2 7 9 10 7 5 1 4 5 5 7 10 12 13 13 11 10 12 12 20 19 13 14 16 19 21 23 25 26 28 30 31 32 32 34 36 37 36 36 37 34 34
1 1 6 9 10 3 2 1 4 4 5 6 8 10 12 15 13 13 12 12 14 12 10 13 15 17 19 22 24 26 29 31 32 34 34 34 35 36 36 35 35 32 33 35
3 6 1 12 2 3 4 6 7 7 8 11 12 11 13 14 12 12 13 11 9 10 13 15 17 18 20 21 24 27 30 32 33 33 34 36 37 37 35 34 26 31 34 35
4 4 3 3 6 8 7 7 8 11 14 13 14 14 14 13 13 12 9 8 10 12 15 17 19 20 22 22 25 28 32 33 32 32 35 38 40 41 37 33 30 28 29 27
5 6 8 6 2 4 7 12 15 14 15 18 16 12 12 13 12 9 8 9 12 15 17 19 22 23 23 24 27 29 30 31 32 33 36 38 37 36 38 42 33 30 28 27
6 4 3 3 8 13 14 14 13 13 12 12 11 8 8 7 7 8 9 11 15 18 19 21 22 24 24 27 29 28 28 29 30 34 35 36 34 33 33 35 37 38 35 30
7 6 4 8 13 15 14 12 12 11 10 7 5 6 7 7 8 9 11 14 17 18 19 21 23 25 26 27 28 29 29 30 31 33 33 31 32 33 32 32 33 36 37 36
7 10 12 15 10 11 14 14 11 9 7 6 7 7 7 7 9 11 13 15 18 20 21 23 25 27 28 29 29 30 31 31 28 30 30 32 31 30 31 32 34 35 34 34
12 14 8 9 12 14 13 11 9 7 8 9 7 7 8 9 11 13 14 16 19 21 23 26 28 29 30 30 30 31 32 33 28 32 29 31 30 30 32 32 32 35 34 35
3 4 7 12 13 12 11 8 7 9 10 9 8 8 9 11 13 14 16 19 22 25 26 27 29 31 31 30 30 31 31 32 30 30 32 31 30 30 32 32 33 33 35 34
5 11 14 14 13 11 9 9 8 9 9 8 8 8 10 12 15 17 20 23 26 30 28 28 29 30 31 31 29 29 28 29 32 33 31 29 33 31 34 33 33 32 31 33
10 15 17 16 13 11 10 9 9 10 10 9 9 11 12 14 17 21 23 26 27 26 29 30 31 32 31 31 29 26 31 32 32 31 32 30 32 33 31 32 29 30 33 32
14 17 18 16 14 13 11 10 11 11 10 11 12 14 16 18 20 22 26 29 27 27 29 31 31 32 32 30 28 32 33 34 33 32 32 32 32 30 30 31 32 29 31 30
15 17 19 18 17 15 14 13 13 13 13 14 15 17 19 21 23 24 24 27 30 30 31 32 32 30 28 28 30 33 35 33 33 31 30 29 29 30 31 29 31 31 29 30
16 18 19 20 18 15 14 16 16 16 16 16 18 19 21 23 23 26 30 28 29 31 30 31 29 29 27 29 32 33 31 28 28 28 29 30 29 27 30 32 30 29 30 28
17 18 21 19 17 17 17 15 16 17 17 18 20 20 22 24 25 24 27 29 30 29 29 29 29 29 28 30 29 29 29 29 29 29 28 28 31 31 30 29 31 29 29 27
17 19 20 18 17 16 14 15 17 17 18 19 19 20 21 22 25 28 28 29 28 28 30 30 29 28 27 28 29 29 29 30 30 28 29 30 29 29 30 30 30 27 26 26
19 17 14 13 13 14 15 15 15 15 17 18 19 20 22 24 25 27 28 27 29 29 29 29 29 28 28 28 29 30 31 32 31 31 28 29 29 31 29 28 27 26 24 23
15 12 11 11 12 12 12 12 13 13 15 18 22 22 23 25 26 26 26 28 28 29 29 29 29 29 29 30 31 33 32 33 32 30 30 31 31 30 28 26 25 23 23 20

GFSNGP_850_spd_006.txt.gz
Wind_Speed
3 4 4 7 9 10 9 7 7 5 8 3 4 4 4 5 3 7 14 18 19 18 16 12 8 4 3 8 15 21 21 22 23 25 25 26 26 27 28 29 31 33 36 37
2 3 2 2 4 8 4 4 2 5 4 3 3 3 2 2 3 2 9 15 17 18 15 12 8 5 5 12 19 23 22 24 25 25 25 26 27 28 30 32 35 37 38 40
3 1 2 4 8 8 5 4 7 7 7 4 3 6 5 5 4 3 6 12 18 18 15 12 8 2 9 16 20 20 23 24 24 24 25 27 28 30 33 36 37 38 39 39
3 2 1 3 1 6 6 2 4 6 5 5 7 5 3 3 4 7 10 13 18 18 15 10 5 7 12 16 20 20 20 22 23 24 25 27 30 33 35 36 38 39 40 39
5 4 4 0 4 7 6 3 2 7 5 5 5 3 1 5 6 10 11 12 15 14 11 8 7 9 13 18 18 18 19 21 23 25 27 29 32 34 34 37 38 39 39 40
2 4 7 1 2 7 4 2 6 8 6 5 5 2 3 5 4 4 4 8 12 12 10 9 7 12 16 17 18 18 20 22 24 25 28 30 31 33 35 36 39 41 42 42
2 2 5 3 4 5 5 3 9 12 11 9 4 4 3 4 2 3 5 9 12 11 8 6 10 14 18 15 17 19 21 23 24 26 29 31 33 33 36 39 41 42 44 44
3 2 6 4 4 6 5 13 16 12 8 5 3 1 2 2 2 3 7 10 9 8 8 10 13 14 13 15 18 21 23 24 26 28 30 32 33 36 38 40 42 43 44 44
6 4 0 3 3 18 17 19 11 7 6 3 3 1 3 5 7 8 9 9 9 9 10 11 11 13 14 17 20 22 25 26 28 31 32 33 36 38 40 40 40 41 39 36
3 2 3 14 18 14 13 11 9 6 4 3 3 3 6 8 8 9 10 10 11 10 10 10 12 14 16 19 22 25 26 28 30 34 37 36 37 37 38 38 37 34 33 36
1 2 3 8 9 11 11 8 5 3 3 4 6 8 9 9 9 9 9 10 10 11 11 11 13 16 18 20 23 25 27 30 34 36 37 39 39 38 36 33 27 30 33 34
5 10 5 10 11 9 8 5 6 4 3 6 9 11 11 10 8 7 7 9 11 11 12 12 15 17 18 21 23 26 30 34 35 37 38 39 40 42 37 29 26 28 27 26
2 13 6 16 11 10 9 6 4 3 6 9 10 10 10 8 8 8 9 10 11 11 11 13 16 18 18 21 25 29 32 34 36 37 37 37 38 38 40 38 32 29 26 27
10 13 9 13 8 8 4 2 2 6 10 11 10 9 7 8 9 6 8 9 9 10 12 15 17 18 20 24 29 31 32 33 34 35 36 36 35 33 34 35 36 36 34 30
14 8 9 12 7 2 1 2 7 10 12 11 11 9 7 7 7 8 8 9 11 13 14 16 18 20 24 28 30 31 32 33 34 34 34 31 32 33 33 32 32 35 36 35
15 14 10 5 4 3 3 7 10 12 13 11 9 7 5 6 7 8 9 11 13 13 15 18 21 25 28 29 29 31 32 33 32 32 31 32 32 33 32 31 33 33 34 37
14 8 4 7 3 3 6 9 10 11 11 9 7 6 8 8 9 9 9 12 13 15 18 22 25 27 28 28 30 32 34 33 31 29 30 32 33 31 31 32 32 35 35 36
7 12 8 4 3 6 8 9 11 11 11 10 10 9 10 10 9 9 11 13 15 17 19 23 25 27 29 29 31 33 33 31 29 31 32 33 31 30 31 32 33 34 35 35
13 8 4 3 5 8 10 11 11 12 11 11 11 10 10 11 11 12 14 16 18 21 23 25 26 28 29 30 31 31 29 29 31 33 34 31 32 30 33 34 32 32 31 32
10 5 1 3 7 9 10 12 13 12 12 12 12 12 12 11 12 14 16 18 19 22 25 27 29 30 31 31 30 28 29 31 33 34 34 29 32 33 33 33 29 31 32 33
9 7 5 6 8 11 13 14 14 13 12 12 13 12 12 13 14 16 18 21 20 23 26 28 29 31 32 31 28 29 31 32 33 33 32 32 31 32 33 33 32 34 33 30
6 7 8 10 11 13 14 15 15 13 13 12 12 13 14 15 16 17 18 22 24 26 28 30 31 31 30 26 29 30 31 31 32 31 30 30 31 32 31 32 34 33 31 32
6 8 9 10 13 15 16 17 16 14 12 12 12 13 14 15 16 19 22 22 25 27 29 30 30 29 28 27 29 30 30 29 29 29 30 31 30 30 33 34 30 31 32 32
8 10 11 13 14 15 17 16 13 10 9 10 11 12 13 15 16 18 21 24 26 28 29 29 29 28 27 29 29 29 29 29 30 30 30 29 32 33 32 32 32 33 31 28
13 12 13 14 14 15 16 12 9 8 8 9 10 10 12 16 20 21 23 25 27 28 29 28 28 28 28 28 28 29 29 29 30 29 30 31 30 31 32 33 31 29 27 28
13 12 12 12 14 14 10 7 6 6 6 6 8 10 13 15 18 22 24 26 27 27 27 28 28 28 28 28 28 29 29 30 30 31 30 30 31 32 32 30 27 26 26 26
11 10 10 11 10 8 6 5 5 4 5 7 8 10 14 18 20 23 24 25 26 26 27 27 27 27 27 29 29 30 31 31 31 30 29 31 31 29 27 25 25 25 24 23

GFSNGP_850_spd_009.txt.gz
Wind_Speed
2 2 6 7 9 11 9 10 9 7 8 7 6 6 9 10 10 13 16 20 22 22 21 18 16 11 7 2 7 13 18 20 20 20 20 20 20 22 24 27 29 32 35 36
2 2 4 5 6 13 10 4 6 5 7 5 5 7 7 7 7 8 11 16 19 21 21 20 15 10 6 3 9 15 17 18 19 19 19 20 22 25 28 30 33 36 38 38
3 1 4 3 10 10 7 5 12 12 10 7 4 7 9 9 7 5 4 10 17 21 21 18 13 10 5 6 12 15 16 18 19 18 19 22 25 27 30 34 36 37 37 37
3 2 1 4 1 6 7 4 5 3 5 6 11 11 9 6 5 3 1 4 13 19 19 16 13 9 6 9 13 15 16 18 17 19 22 24 27 30 33 36 37 38 38 38
4 4 4 1 4 6 8 6 6 8 6 11 14 10 5 5 2 2 4 5 7 13 15 14 11 7 6 10 14 15 16 17 19 22 24 26 29 32 35 37 38 39 39 40
1 4 6 1 2 6 4 4 8 8 7 8 9 3 2 1 1 3 4 3 7 13 14 12 9 6 8 11 14 15 15 18 21 23 24 28 31 33 35 37 39 41 42 40
4 2 6 4 4 8 4 3 10 17 15 12 4 4 5 0 1 2 2 5 10 12 12 9 7 8 11 12 14 15 17 19 20 22 26 30 33 35 36 38 40 41 41 39
3 2 7 6 4 7 4 13 19 17 13 10 8 5 2 2 2 4 6 8 11 11 10 8 8 9 10 12 14 16 18 19 22 25 28 32 34 36 37 39 40 41 41 39
6 4 1 2 1 10 25 26 15 14 11 9 8 5 3 3 4 7 9 11 12 11 9 8 8 10 11 14 16 17 20 22 25 28 31 33 35 36 38 38 38 38 37 35
3 1 2 8 20 16 19 16 14 11 9 6 5 5 5 5 6 9 10 11 10 9 8 8 9 13 13 14 16 19 22 25 28 32 35 34 34 35 36 36 34 32 31 32
2 2 6 9 13 18 16 14 11 9 7 7 7 8 8 8 7 8 9 9 8 7 8 10 12 11 12 15 18 20 24 27 32 34 34 36 36 35 34 31 25 28 30 31
5 13 6 14 17 17 16 13 10 9 8 6 6 8 9 9 8 8 8 7 8 8 10 10 9 10 12 15 19 22 27 31 32 33 35 36 37 38 32 28 24 24 24 24
5 20 6 22 19 17 15 12 10 8 6 4 6 7 7 7 6 7 8 9 9 8 8 8 10 11 14 17 20 25 29 31 32 33 34 35 35 33 37 34 30 27 24 25
17 21 16 18 13 16 12 10 8 5 3 5 6 7 6 6 7 8 10 8 8 7 7 9 11 13 17 20 24 27 29 29 31 33 33 32 30 32 32 34 35 35 31 27
21 8 18 19 19 14 10 9 5 3 4 5 6 6 5 7 8 10 9 8 7 6 8 10 13 15 19 23 26 27 29 31 33 33 31 28 30 32 33 30 31 33 35 33
15 18 22 19 14 13 10 5 2 3 5 5 5 4 4 5 7 8 8 7 6 7 9 12 15 18 22 24 26 28 30 30 30 29 28 29 30 32 31 30 31 33 33 35
26 18 16 16 15 10 5 1 3 5 5 5 4 4 5 6 7 8 8 8 8 9 10 14 18 21 23 25 28 30 31 31 28 26 28 30 31 30 28 30 32 31 33 33
16 14 15 14 11 6 2 1 2 4 5 5 5 6 7 8 8 9 9 9 9 10 13 16 19 22 24 25 27 29 30 29 27 29 30 31 28 28 30 30 31 31 33 33
21 21 15 10 7 5 2 1 3 5 6 6 6 6 7 8 9 9 9 10 10 13 15 18 21 23 24 26 28 29 28 28 29 30 31 29 30 31 31 31 31 29 30 33
21 15 10 7 5 2 1 2 4 5 6 7 7 8 8 9 10 10 10 11 12 16 18 20 22 24 26 28 27 27 28 29 30 31 31 29 30 31 31 30 26 28 33 30
14 10 7 5 4 2 2 4 6 7 7 7 8 8 8 9 9 10 11 13 13 17 19 21 23 26 27 28 28 28 28 28 29 29 29 29 29 30 31 30 31 32 31 29
10 7 6 5 5 3 4 6 7 8 8 8 8 8 9 9 9 10 12 14 15 18 21 23 25 26 27 26 27 27 28 28 28 28 28 28 29 30 30 31 32 30 30 32
7 6 5 4 4 5 6 7 9 9 7 6 6 7 7 8 9 11 12 14 17 19 23 25 26 26 26 27 27 26 26 26 26 26 27 28 28 29 31 31 28 30 31 31
3 3 5 5 5 6 8 9 9 6 4 4 5 5 6 7 9 11 13 16 19 22 24 25 26 25 25 26 25 25 25 25 26 27 27 27 30 30 29 29 31 30 30 27
4 5 5 5 5 6 7 7 5 3 2 3 3 4 6 9 11 12 15 19 21 23 25 24 25 24 24 24 24 25 25 26 27 28 28 29 28 29 30 30 29 28 25 26
6 5 4 4 4 5 5 4 2 1 1 1 3 5 8 10 13 16 18 21 22 23 23 24 24 24 24 24 25 26 27 27 28 28 28 27 28 29 29 27 25 25 25 24
4 4 4 4 4 4 3 1 1 1 1 2 3 6 9 12 15 18 19 20 21 22 22 22 23 24 25 25 26 27 28 29 28 28 28 28 27 26 24 24 24 23 22 21

GFSNGP_850_spd_012.txt.gz
Wind_Speed
3 2 15 18 19 20 20 21 13 15 18 16 9 9 12 16 18 19 19 19 21 21 20 20 20 18 14 10 6 4 8 11 13 17 17 17 16 17 20 22 24 27 29 29
3 3 10 14 20 22 23 21 23 18 18 5 4 12 13 15 16 17 18 19 20 20 20 21 20 17 14 10 6 6 9 12 15 17 16 16 17 19 22 24 26 29 30 29
3 3 5 8 19 20 19 21 22 19 21 10 8 10 14 13 12 12 12 15 18 20 20 20 19 17 13 9 6 8 11 14 16 15 15 17 19 22 24 27 30 31 29 30
3 4 5 1 3 17 22 18 20 18 5 12 12 13 11 9 10 8 8 9 13 17 19 19 19 16 12 8 6 9 12 15 15 15 16 19 21 24 28 30 30 28 28 31
3 8 6 3 5 7 12 15 16 17 8 12 18 16 8 7 8 6 4 5 9 13 17 18 17 15 11 7 7 10 13 15 15 16 18 21 24 28 30 31 30 28 29 26
4 3 4 3 3 7 6 8 12 15 15 17 18 10 6 7 6 4 3 4 8 13 16 16 15 12 8 8 10 11 14 14 15 18 20 23 27 30 30 29 27 27 26 25
8 2 7 2 6 7 6 1 11 15 19 19 9 4 14 9 6 4 4 5 8 11 13 13 11 9 7 8 10 13 13 15 17 19 22 26 29 30 29 29 28 26 25 23
6 5 10 8 6 6 4 11 16 18 16 15 16 13 11 8 6 5 4 6 8 9 10 10 9 8 8 9 11 12 14 16 18 21 25 28 28 29 29 25 25 26 25 23
7 4 2 1 2 3 11 20 14 18 16 16 14 11 9 7 5 4 5 6 8 9 9 9 9 9 9 10 12 13 16 18 21 24 26 26 27 28 26 24 24 24 24 25
4 2 1 2 6 11 16 19 19 18 16 12 11 10 8 5 5 6 7 9 10 10 10 10 10 8 9 10 13 15 18 20 23 25 27 26 25 24 25 23 22 22 24 27
1 1 5 5 9 21 21 20 19 16 13 12 10 9 6 6 6 8 9 11 12 11 10 10 9 7 9 11 14 16 19 21 23 25 25 25 26 25 25 22 20 23 25 27
3 15 3 18 20 21 22 19 16 14 13 10 8 6 6 7 8 10 11 12 12 11 10 9 7 8 11 12 14 16 20 22 24 26 25 26 25 26 21 22 22 23 24 24
3 16 6 20 22 21 20 17 14 12 10 8 6 6 7 8 9 10 11 11 10 9 8 8 8 9 11 12 15 18 21 23 24 24 25 24 23 23 27 25 22 22 22 23
12 19 11 20 16 20 16 16 13 11 9 6 5 5 6 7 8 9 11 11 10 9 8 8 8 9 11 13 17 20 23 25 26 25 23 23 22 23 24 25 27 26 24 25
18 9 14 23 24 21 17 14 12 9 6 5 5 5 7 8 9 9 11 11 10 9 8 8 8 10 13 16 19 22 24 25 26 26 24 24 22 22 22 23 24 27 28 27
17 12 21 26 24 20 16 15 11 8 6 5 5 5 6 7 8 8 10 10 10 9 8 8 9 12 15 18 21 24 25 27 28 26 22 21 20 21 22 23 25 27 27 28
26 21 25 24 21 19 16 11 8 6 5 5 5 5 4 5 8 10 11 11 10 8 8 9 11 14 17 20 23 25 27 27 27 23 21 20 20 21 22 24 25 26 27 27
23 26 25 21 22 18 13 9 6 4 4 3 4 4 6 7 9 11 12 10 8 8 10 12 14 16 19 21 24 26 27 25 23 21 20 20 21 22 22 23 24 25 28 28
23 22 21 19 16 13 10 8 5 2 1 3 5 6 8 9 11 12 11 9 8 10 12 13 16 18 21 23 25 26 24 22 21 20 20 21 21 21 21 22 24 25 27 28
24 24 20 17 14 10 8 5 1 1 3 5 6 7 8 9 10 10 9 9 9 12 14 16 18 21 23 24 24 24 20 20 20 21 21 21 21 21 21 22 23 25 26 25
25 20 17 14 11 8 5 2 2 3 4 5 5 6 7 8 9 9 9 9 11 13 15 17 20 22 24 24 23 18 20 21 22 21 21 21 21 21 21 23 24 25 25 24
19 16 13 9 7 5 4 4 4 4 5 5 6 6 6 7 8 8 9 10 13 14 17 19 21 22 23 23 20 21 23 24 24 24 23 22 23 23 24 25 25 25 26 27
14 10 8 7 7 6 5 4 3 4 5 4 4 4 5 6 7 8 9 11 13 15 17 20 21 22 22 22 22 24 24 24 24 24 25 26 25 26 26 25 25 25 25 26
10 8 7 7 7 6 4 3 3 3 3 4 4 5 5 5 7 8 9 11 14 17 19 20 21 22 22 23 23 24 24 24 25 27 27 26 26 26 26 26 27 25 25 24
10 9 9 9 8 5 3 3 3 3 4 4 4 4 5 6 7 8 10 13 16 18 19 20 21 22 22 22 23 24 24 25 26 26 24 26 26 26 27 27 26 25 24 25
8 8 8 8 6 3 2 2 3 4 5 5 5 4 4 5 7 11 14 16 17 18 20 21 21 22 23 24 24 25 25 26 27 27 27 26 26 27 27 25 24 25 24 23
9 7 7 6 5 4 3 4 4 5 5 5 4 3 5 8 11 13 14 16 17 19 20 21 22 23 24 25 25 25 27 28 28 28 27 27 26 25 25 25 24 23 22 21

GFSNGP_850_spd_015.txt.gz
Wind_Speed
3 3 16 17 19 20 19 18 12 12 15 10 6 8 9 17 21 22 23 23 21 20 18 17 15 14 13 12 11 9 6 7 10 13 15 14 14 16 18 21 23 24 26 25
3 2 6 13 18 20 22 23 21 19 16 6 2 4 10 16 21 22 21 21 20 18 18 17 16 15 14 13 12 8 6 8 11 14 14 14 15 18 21 23 24 25 25 25
3 5 5 9 19 19 19 21 20 21 18 15 6 8 11 13 17 18 18 18 18 18 17 16 16 15 14 12 11 7 6 9 12 14 14 15 18 20 21 23 24 25 25 26
2 5 6 1 2 17 21 19 20 20 15 5 9 9 7 7 11 11 11 12 14 15 15 16 15 14 14 13 9 7 7 10 12 14 15 17 19 20 22 24 25 26 27 28
3 6 9 12 3 5 16 19 19 18 16 6 14 17 9 8 10 11 10 10 11 13 15 15 16 16 13 10 7 6 8 10 13 15 17 18 20 23 25 26 28 29 29 30
1 3 4 5 2 0 6 9 5 16 13 15 20 8 6 11 11 11 10 10 11 13 14 14 14 13 11 8 6 7 9 12 14 16 18 20 22 25 26 27 29 29 29 29
2 4 7 5 5 5 5 3 3 5 14 20 12 5 22 17 12 10 9 9 9 10 12 13 12 11 9 7 7 8 10 14 16 17 19 21 25 26 28 29 29 28 29 28
6 3 7 7 5 4 3 6 8 12 15 16 18 18 17 15 13 10 9 10 10 11 12 11 10 9 7 6 7 10 13 14 16 18 20 23 27 30 30 28 26 27 27 27
7 4 3 3 3 2 6 12 13 17 17 19 19 16 15 14 11 9 8 8 9 9 10 9 8 6 5 8 9 12 13 14 17 19 21 24 28 28 28 24 25 26 26 27
3 3 2 6 2 3 11 12 15 17 18 16 17 14 13 11 9 7 6 7 8 8 8 8 7 6 7 9 11 11 13 15 18 21 25 26 24 23 24 25 25 26 28 29
1 2 3 4 5 11 15 17 18 16 14 14 14 12 10 8 6 5 6 6 7 8 8 7 7 7 9 9 9 11 14 17 20 23 25 25 23 24 25 24 23 27 30 31
3 12 4 10 17 17 19 19 17 16 15 13 10 9 7 4 4 5 6 7 8 9 9 9 7 8 8 8 10 13 17 20 21 23 23 22 25 29 24 22 23 24 25 26
2 14 5 18 19 17 18 17 15 13 11 11 9 6 3 3 4 6 6 8 9 9 9 8 8 7 7 9 11 15 18 21 21 22 21 22 25 26 31 31 24 23 23 24
13 18 14 17 13 17 19 17 15 13 12 9 5 3 2 3 4 5 6 8 10 9 9 8 6 6 8 11 14 17 19 20 20 20 23 24 24 26 26 28 31 30 27 26
12 7 11 17 21 19 19 18 15 13 10 6 3 2 2 2 4 5 7 9 10 9 8 7 6 8 10 13 16 18 19 20 21 25 26 23 23 24 25 26 27 29 30 30
14 13 18 24 24 22 20 17 13 11 7 4 2 2 2 3 5 5 6 8 8 8 8 7 7 10 13 15 17 19 20 22 24 25 25 23 22 24 25 25 27 28 29 29
24 17 22 25 25 22 17 13 11 8 5 3 2 3 3 3 5 7 8 9 10 9 8 8 10 12 14 17 19 21 23 24 23 23 22 22 24 23 24 26 26 27 29 28
13 15 22 26 25 20 16 12 9 6 4 3 3 3 4 4 5 7 8 8 8 8 9 10 11 13 16 19 21 23 25 25 24 23 23 22 23 25 24 24 26 27 29 31
15 23 21 21 20 18 15 11 8 6 4 3 3 3 4 5 6 7 7 8 8 8 11 11 13 16 18 20 22 25 25 23 21 21 22 22 22 23 23 24 26 27 28 31
23 23 23 22 18 14 13 10 7 5 3 2 2 3 4 5 7 8 8 8 9 10 11 13 15 17 19 21 24 25 22 19 21 22 23 22 22 22 23 23 24 27 29 29
26 25 23 20 17 14 11 8 5 4 3 2 3 4 6 7 7 8 8 6 11 10 12 14 16 18 21 23 25 23 20 21 22 21 22 21 21 23 24 25 27 28 28 29
27 23 20 17 14 12 9 7 5 3 3 3 4 5 6 6 7 7 7 8 11 11 13 16 18 21 23 23 23 20 20 22 22 22 22 21 24 27 26 27 27 27 28 29
23 19 16 13 12 10 8 5 4 3 4 4 4 5 5 5 6 5 6 8 10 13 15 17 20 21 21 22 21 21 21 21 22 23 24 26 27 26 26 27 27 27 28 28
18 15 14 12 10 8 6 5 4 4 4 4 5 5 5 5 5 6 7 10 12 14 17 17 19 20 21 21 20 21 21 22 23 24 26 24 26 27 27 26 26 27 27 26
14 12 11 10 9 8 6 5 4 4 4 5 5 5 5 4 5 7 8 11 14 15 16 17 19 19 20 21 22 22 24 24 24 26 26 28 29 28 26 26 27 27 25 26
12 10 10 10 9 8 7 6 6 6 6 7 6 5 4 4 5 7 10 12 13 15 17 18 19 21 22 23 24 24 25 26 27 28 28 28 27 26 27 27 27 26 25 24
11 10 10 10 10 8 8 7 7 8 8 6 4 3 3 5 8 10 11 13 15 16 18 20 21 22 23 24 24 25 26 27 28 28 27 27 27 27 27 26 25 23 22 21

GFSNGP_850_spd_018.txt.gz
Wind_Speed
20 13 17 16 16 15 10 8 1 4 6 9 10 11 12 20 26 29 29 30 30 28 24 22 21 19 17 16 14 12 9 6 4 7 11 14 15 15 16 19 22 25 29 30
9 8 12 11 13 14 11 7 8 9 7 4 8 20 20 22 25 26 29 30 28 26 23 25 22 20 19 17 14 12 8 5 5 9 13 15 15 16 18 21 25 28 30 31
3 3 5 1 12 13 11 10 8 12 8 3 6 8 14 23 25 24 25 26 25 25 24 24 21 21 19 17 13 11 7 5 7 10 13 15 15 17 20 24 28 29 30 31
1 1 1 2 1 8 11 7 10 9 6 2 8 17 18 10 21 19 22 25 24 23 22 21 21 19 16 14 13 9 6 5 8 11 13 14 16 19 23 26 29 30 31 31
1 2 5 1 2 1 5 10 7 7 9 12 23 17 12 14 16 17 18 20 21 21 23 23 20 18 16 13 10 7 5 6 10 11 13 15 18 22 26 28 30 30 31 32
3 1 2 2 3 6 2 2 7 5 8 14 14 5 4 12 17 18 18 18 21 22 21 19 18 16 14 11 8 5 4 7 10 11 14 17 21 25 27 28 30 31 32 32
3 2 5 2 1 5 4 3 9 10 17 19 5 4 26 20 18 18 18 18 17 16 16 15 13 13 11 8 6 4 5 8 10 12 16 20 23 25 27 29 31 32 33 33
3 1 6 5 3 2 2 3 6 17 22 30 29 29 25 21 20 18 17 16 15 15 13 12 12 11 9 6 3 5 7 8 10 14 18 21 24 26 28 30 32 34 34 35
7 6 2 5 4 3 4 8 14 22 23 27 27 24 22 21 18 17 15 15 13 11 12 12 11 9 7 4 3 6 7 9 12 16 19 21 25 28 29 30 31 33 34 36
4 3 4 7 5 7 11 16 16 19 22 24 26 22 20 18 16 14 13 12 10 10 10 10 9 7 4 2 4 5 8 11 14 18 20 24 26 27 29 30 31 32 33 35
2 3 3 5 8 16 19 19 21 20 20 22 22 19 17 15 12 10 10 10 9 8 8 7 7 5 2 3 4 7 10 13 16 19 23 27 27 28 29 27 25 27 30 31
4 11 5 8 20 21 24 25 23 24 22 19 17 19 15 13 9 8 8 8 10 10 8 6 5 3 2 3 5 8 11 14 18 23 26 26 29 33 30 29 25 23 24 25
4 14 10 22 23 22 26 24 21 21 19 20 17 14 11 10 8 6 6 7 8 8 7 5 4 3 3 4 7 10 14 18 22 24 25 28 30 30 35 35 29 26 23 24
19 24 18 24 15 22 25 23 21 19 17 15 13 10 7 6 6 5 5 6 7 6 5 4 4 3 4 7 9 12 17 20 22 24 26 28 28 28 29 31 34 35 31 27
19 6 17 21 26 25 23 22 21 19 16 13 9 7 5 5 5 4 4 5 6 6 5 4 3 5 6 8 12 16 19 21 24 25 26 26 27 27 28 29 29 32 34 33
14 18 24 27 26 25 24 21 19 17 13 11 8 6 5 4 4 3 3 5 5 4 3 3 5 5 7 11 15 18 20 22 23 23 24 26 26 27 28 28 31 31 31 35
27 20 24 25 27 26 22 18 16 15 12 9 7 6 5 5 4 4 4 4 3 3 3 4 5 7 10 15 17 19 22 23 23 23 24 25 26 27 27 29 29 31 33 33
13 16 22 28 32 28 22 18 16 13 10 9 7 6 5 4 3 2 2 3 4 4 3 4 6 10 14 17 19 20 22 23 22 22 24 25 24 24 27 27 29 31 33 34
12 20 24 29 27 24 22 19 15 12 10 8 6 5 4 3 1 0 2 3 3 3 4 6 9 13 16 18 19 21 22 23 22 22 24 25 25 25 26 27 29 30 32 34
26 28 29 26 23 21 20 15 13 10 8 6 5 4 3 1 1 2 3 4 2 4 7 10 13 15 17 17 20 22 23 22 22 24 25 23 25 25 26 28 29 31 31 30
30 30 29 27 24 19 15 13 10 8 7 5 3 2 2 2 2 2 3 3 2 5 8 11 14 15 17 20 22 22 21 21 23 24 24 24 25 27 29 30 30 30 30 29
31 30 27 24 21 18 14 10 8 7 5 3 2 2 2 2 2 2 2 4 5 8 10 12 14 17 19 21 21 21 21 21 22 22 23 24 27 29 29 29 31 30 28 28
29 26 23 19 17 15 12 9 7 5 4 3 3 3 2 2 1 1 1 3 6 9 11 13 16 17 19 20 20 20 21 21 22 24 25 26 26 27 28 30 29 28 29 29
26 21 19 16 14 12 10 8 6 5 4 4 3 3 2 2 1 1 3 6 8 10 13 14 16 17 19 20 20 21 21 22 23 24 25 25 29 29 29 28 28 28 30 27
20 18 15 14 12 10 9 7 6 5 4 4 4 4 2 1 2 3 5 7 10 11 12 14 16 18 19 20 21 21 22 23 24 25 26 27 28 28 28 28 27 27 26 26
18 16 14 12 9 9 8 7 5 5 4 4 4 3 1 1 2 4 7 9 10 12 14 16 18 19 20 21 22 22 23 25 25 26 26 27 28 27 26 26 25 24 24 23
15 12 12 12 11 9 8 6 5 5 5 4 3 2 0 2 4 6 7 9 11 13 15 17 18 19 20 22 22 23 24 25 24 25 25 25 25 24 23 23 23 23 22 20

GFSNGP_850_spd_021.txt.gz
Wind_Speed
13 16 8 8 12 19 15 6 4 4 5 8 10 10 12 25 29 32 35 40 40 38 35 30 26 24 22 20 18 16 14 10 6 3 5 8 11 13 13 15 17 21 25 26
10 7 14 9 14 9 6 4 2 3 3 2 4 12 12 26 32 30 32 35 38 37 32 28 26 26 24 20 18 15 13 9 5 3 6 9 13 13 14 17 20 23 25 27
3 5 7 2 10 5 4 2 5 2 5 5 6 8 12 24 29 31 34 37 37 35 30 27 27 25 23 20 16 14 12 8 5 4 7 10 12 13 16 19 22 24 26 27
3 3 1 5 3 8 13 5 7 2 3 3 9 14 10 26 34 34 35 35 34 31 28 25 26 23 21 18 14 13 11 7 5 5 9 11 11 14 18 21 24 25 26 26
2 3 5 4 4 2 7 7 3 10 6 11 20 20 14 13 26 29 31 31 30 27 25 27 26 24 20 15 13 12 9 5 4 7 9 10 13 16 20 23 25 26 27 28
2 1 2 3 4 3 0 2 4 1 8 14 11 5 3 18 21 22 25 27 28 27 26 26 25 20 15 13 13 11 6 3 5 7 8 11 15 18 22 24 25 27 29 29
2 1 7 4 4 5 3 3 6 4 15 15 5 4 26 22 23 23 24 25 24 24 24 21 18 15 14 13 11 6 3 3 5 6 9 13 16 20 23 25 27 29 29 30
3 1 6 2 2 2 3 4 8 14 20 26 29 34 29 24 24 23 24 23 20 20 18 16 15 14 14 11 7 4 2 4 4 7 11 14 19 22 24 25 27 29 31 32
7 6 1 2 3 5 4 9 11 24 25 30 32 30 27 26 23 21 19 19 17 17 18 16 13 11 10 8 5 2 2 2 5 9 12 17 21 23 24 26 28 30 31 34
3 4 3 4 4 6 11 14 18 22 27 28 33 29 27 25 23 21 18 18 16 16 15 16 13 11 8 5 3 2 1 4 7 11 15 18 20 22 25 27 28 28 30 32
1 1 3 3 5 15 20 20 22 22 24 27 29 26 25 23 21 19 18 16 13 13 13 12 11 9 6 4 3 1 3 6 10 14 18 20 21 24 25 24 22 25 26 27
5 11 5 5 17 24 24 25 24 28 26 23 23 25 22 21 18 16 15 14 13 12 11 10 10 7 5 4 1 2 5 9 13 17 19 21 24 26 23 25 24 22 21 21
4 10 6 20 25 23 24 26 26 26 25 25 21 21 19 19 15 14 13 12 10 9 9 9 8 5 4 2 2 5 9 12 16 18 20 23 25 27 30 29 26 25 24 23
15 22 17 24 14 24 27 27 26 25 23 22 21 18 16 15 14 12 12 11 11 10 9 7 6 5 3 2 4 8 11 14 17 20 22 24 25 26 26 29 32 33 29 26
16 5 18 20 27 28 28 28 28 26 24 21 17 16 14 14 14 12 11 11 11 10 8 7 6 4 2 4 7 11 14 16 19 21 22 23 23 24 26 27 29 32 33 32
14 18 25 31 32 31 30 28 28 26 22 20 17 15 14 13 13 12 11 9 8 9 8 6 4 1 3 7 10 13 15 18 20 22 22 22 23 25 26 27 29 29 32 34
27 22 29 31 32 31 29 26 24 24 21 18 16 15 14 13 12 12 11 10 8 7 6 4 1 3 6 9 12 15 17 19 21 21 21 22 24 24 26 27 28 29 32 32
18 21 27 32 36 32 27 24 23 21 19 17 15 14 13 11 11 11 10 8 7 6 4 1 3 5 8 11 14 16 18 20 20 21 21 23 24 24 25 25 27 31 33 33
13 21 23 31 32 30 28 25 22 19 18 15 14 14 12 11 10 10 9 8 6 4 2 1 4 8 11 13 15 18 19 20 20 20 21 23 23 24 24 26 29 30 31 31
22 26 31 32 28 27 27 23 21 19 16 15 14 13 13 12 9 8 8 7 5 2 0 4 7 10 12 14 16 18 20 20 20 21 22 22 23 24 26 28 28 29 30 28
31 35 35 32 29 26 23 21 19 18 17 14 12 12 11 11 9 7 6 5 4 1 3 7 9 11 13 16 17 19 19 19 20 21 22 23 24 25 27 27 29 29 29 27
36 36 35 33 31 27 22 19 17 17 15 13 11 10 10 10 8 7 6 3 2 2 5 8 10 12 14 16 18 18 18 19 20 21 22 23 24 26 28 29 30 29 28 28
37 36 34 31 29 27 23 18 16 13 12 10 10 10 9 9 8 5 4 3 2 4 7 9 11 13 15 16 18 18 19 19 20 21 23 23 25 27 28 29 28 28 28 28
36 33 30 26 24 22 20 17 13 12 10 10 10 9 7 7 7 5 3 1 3 6 8 10 12 14 16 17 18 18 19 20 21 22 23 25 25 25 26 27 28 27 26 24
31 28 26 23 20 18 16 15 13 12 11 11 11 10 8 6 3 3 2 3 6 7 9 10 13 15 16 17 17 18 19 21 23 25 25 25 26 26 26 25 24 24 25 24
28 25 22 17 15 16 15 14 12 13 12 12 12 9 6 5 3 2 3 5 6 8 10 13 15 16 16 17 19 20 21 22 23 23 24 24 23 23 23 23 22 22 22 21
24 21 21 19 17 15 13 12 12 13 12 10 8 8 5 3 2 2 4 6 8 10 12 13 14 16 17 19 20 21 22 22 21 22 22 21 21 21 21 22 22 21 20 19

GFSNGP_850_spd_024.txt.gz
Wind_Speed
17 23 17 15 19 22 15 12 9 7 8 4 9 12 14 24 27 29 32 37 40 39 37 35 33 29 26 24 22 19 16 14 11 9 5 4 5 8 9 10 13 17 20 21
13 21 18 14 17 21 18 15 16 22 6 4 5 14 14 24 28 28 31 37 39 38 36 35 32 30 28 25 21 17 14 13 11 8 5 5 7 9 9 12 16 19 20 23
5 9 11 8 14 21 15 16 21 9 4 3 4 7 9 22 28 31 36 39 40 39 36 34 33 29 27 23 19 16 14 13 11 7 5 6 9 9 11 14 18 20 21 23
2 1 2 3 3 16 20 10 6 4 5 2 4 9 11 21 29 32 36 37 37 36 34 32 28 26 23 21 17 15 14 13 9 5 5 8 9 10 13 16 19 21 22 24
2 3 5 4 5 1 4 3 1 4 4 5 15 9 6 14 23 28 31 32 32 31 31 29 26 24 22 20 16 14 14 11 7 5 6 7 8 11 15 18 20 22 24 26
4 2 2 3 4 3 1 2 2 1 8 9 9 4 3 9 18 22 25 26 28 28 28 25 26 25 22 18 15 14 11 8 6 5 6 7 10 14 17 20 21 23 25 26
2 2 7 5 3 1 2 4 2 3 11 11 5 2 17 15 19 22 23 24 26 27 26 26 26 24 19 15 14 12 10 6 5 5 5 8 11 16 19 21 23 25 27 26
2 1 5 2 4 1 3 2 3 1 9 15 21 30 27 25 25 25 27 27 25 25 26 25 23 19 15 14 13 10 7 5 4 4 6 10 14 17 19 22 25 27 27 28
6 5 2 2 2 3 2 5 4 15 21 28 34 32 30 29 28 28 28 27 25 25 25 21 17 12 15 14 11 7 5 4 4 5 8 12 15 18 21 24 26 27 28 29
2 2 1 1 3 3 6 9 11 20 27 31 36 31 30 29 28 26 24 24 22 22 22 21 17 15 11 10 8 5 5 4 4 7 10 13 16 20 23 24 25 25 26 27
4 3 0 5 5 9 13 16 19 20 24 29 32 31 30 28 26 24 23 22 19 18 18 18 16 13 11 8 6 5 4 3 6 9 13 16 18 21 23 22 21 22 22 23
5 9 4 3 14 19 20 22 22 25 27 27 28 30 27 26 23 22 21 19 18 16 15 16 14 12 9 7 6 4 3 5 8 12 15 18 21 22 21 22 22 20 20 19
2 6 5 17 23 21 22 23 24 27 28 29 25 25 24 24 20 19 17 17 15 15 14 14 12 9 8 6 4 3 4 8 11 15 18 21 22 24 26 24 22 21 21 22
12 21 14 21 15 22 25 26 27 26 25 25 25 23 22 22 20 17 16 15 15 14 13 12 10 8 7 5 2 4 8 11 14 17 20 21 22 22 23 25 27 27 24 24
14 3 13 20 26 27 28 30 29 28 26 25 21 21 19 20 19 17 16 15 14 13 12 10 9 8 5 1 3 7 10 13 16 18 20 20 20 21 23 23 26 28 29 28
11 17 24 30 31 31 32 30 31 29 25 24 21 19 18 17 18 17 16 14 13 13 11 9 8 5 2 3 6 10 12 15 17 19 19 20 20 22 23 24 26 26 29 30
25 19 26 31 34 34 32 30 28 28 26 23 21 20 19 19 19 18 17 15 12 11 9 7 5 3 3 6 9 12 14 16 18 18 19 19 21 22 23 24 24 27 28 29
13 15 23 32 38 35 30 28 27 25 23 22 21 19 18 16 17 17 16 14 12 11 9 6 3 2 5 8 11 13 16 17 18 19 20 21 22 22 23 23 26 28 29 29
10 17 23 31 33 31 29 28 26 23 22 21 20 19 17 16 16 16 14 12 10 8 7 4 1 4 7 10 12 15 17 18 19 20 21 22 22 23 24 26 27 28 29 29
18 23 26 31 30 29 30 27 25 23 21 20 20 19 19 17 15 14 13 12 10 7 4 1 3 6 9 11 13 15 17 18 20 21 22 22 23 25 25 25 27 28 28 28
26 29 34 35 34 31 28 27 25 24 21 18 17 17 16 16 13 11 11 10 9 5 1 2 5 7 10 13 15 17 18 20 21 22 23 24 25 25 27 28 28 29 28 28
32 37 37 36 34 31 27 24 22 22 21 19 17 15 15 16 15 14 11 5 5 2 2 4 7 9 12 14 16 18 19 20 21 22 23 24 25 27 27 28 29 27 27 26
37 37 37 35 34 31 27 23 20 19 19 17 16 16 14 14 12 9 8 6 3 1 3 5 8 11 13 16 18 19 20 21 22 23 24 24 25 25 26 26 26 26 25 25
38 37 36 34 32 30 29 25 21 19 18 18 16 13 11 12 11 8 6 4 1 2 5 7 9 13 15 17 19 19 20 21 22 23 24 24 24 24 24 25 25 24 24 24
38 37 34 32 29 27 26 24 22 20 19 19 17 15 12 9 5 6 4 1 1 3 6 9 11 14 16 17 18 19 20 21 23 24 23 23 23 23 23 23 23 23 23 22
36 33 31 27 25 25 24 23 21 21 18 18 16 13 10 7 6 4 2 0 3 5 8 11 14 16 17 18 19 20 21 22 22 22 22 21 21 22 22 22 21 20 20 20
32 30 28 26 23 22 20 19 19 20 16 13 12 12 9 7 5 3 0 2 5 8 11 13 14 16 17 18 19 20 22 22 21 22 21 19 20 21 21 21 19 19 19 19

GFSNGP_850_spd_027.txt.gz
Wind_Speed
17 22 16 8 9 20 20 18 15 13 15 22 17 18 7 11 25 29 32 36 39 39 38 37 36 33 30 28 26 23 20 17 15 12 10 7 6 7 9 11 13 15 18 19
11 18 23 16 15 18 23 21 21 14 18 19 16 14 12 19 25 26 28 34 37 37 38 37 36 33 30 28 24 21 18 16 14 12 10 7 7 8 10 12 13 16 19 21
8 7 8 5 17 16 19 17 13 11 16 15 12 8 14 21 26 31 34 38 38 37 37 36 35 33 30 26 22 19 17 15 13 12 9 7 7 9 11 12 15 18 20 22
5 3 2 4 9 13 17 11 11 14 19 16 14 7 13 17 24 27 32 35 35 35 34 34 32 29 26 23 21 18 16 14 13 11 8 7 9 9 10 14 17 19 21 24
4 3 3 1 6 7 10 12 22 23 18 8 13 7 5 11 18 24 29 30 31 31 30 30 30 28 25 23 20 17 15 14 12 9 8 8 8 9 12 15 18 20 23 25
4 4 3 1 1 2 10 3 8 21 16 8 8 3 3 11 14 18 20 23 26 26 27 27 28 26 25 23 19 16 14 13 10 9 7 7 9 11 14 18 20 22 24 25
3 3 7 4 6 3 4 3 3 6 10 7 4 1 12 15 19 18 19 20 21 24 26 27 26 26 24 20 17 14 13 12 9 7 7 7 9 13 17 19 21 24 25 25
2 2 4 7 7 4 2 4 4 1 7 15 17 18 19 20 23 22 23 23 23 26 26 25 25 24 22 18 15 14 12 10 8 6 6 8 11 15 18 21 24 25 26 27
6 5 3 3 1 3 4 3 4 4 14 24 26 24 24 25 25 25 24 25 24 25 26 25 24 19 17 15 15 13 11 8 6 5 6 10 13 17 20 22 24 25 26 28
2 2 3 2 1 4 3 7 9 15 23 26 31 28 29 28 28 28 26 26 26 27 28 27 20 15 13 16 14 10 7 5 4 5 8 12 15 19 21 23 24 25 27 28
4 5 3 4 3 3 10 13 16 18 23 29 33 31 31 30 29 28 27 26 24 24 24 23 20 18 15 12 9 6 5 4 4 7 11 14 17 20 21 22 22 24 24 24
5 4 1 1 10 10 14 16 17 22 26 26 28 31 29 29 26 25 25 23 22 21 21 21 18 15 13 9 6 5 4 4 6 10 13 16 19 20 20 21 22 22 22 22
1 2 4 9 15 14 17 18 19 23 25 28 26 27 26 28 25 23 22 21 20 19 18 18 16 12 9 7 6 4 3 6 9 12 15 18 20 22 25 25 24 23 23 22
7 12 11 16 10 16 20 22 24 25 25 25 26 25 25 26 24 21 20 19 18 17 16 14 12 10 8 6 4 3 5 8 11 14 17 19 21 22 24 26 28 28 23 24
16 5 8 18 23 22 23 27 28 27 26 25 22 22 20 22 22 20 18 17 16 15 15 12 10 9 7 4 2 4 7 10 14 16 18 20 22 23 24 25 26 27 28 27
10 13 20 27 28 28 30 30 31 29 26 25 22 20 19 19 19 19 17 15 15 16 13 11 9 7 5 2 4 7 10 13 15 18 20 21 22 24 25 26 27 27 28 29
22 17 24 28 31 32 31 30 30 30 27 25 23 22 20 20 20 20 19 15 13 12 11 9 7 4 1 3 6 9 12 15 17 19 20 21 23 24 25 26 27 28 28 29
10 13 23 30 37 35 32 29 29 27 26 24 23 21 20 19 20 20 18 16 14 13 11 8 4 2 3 6 9 12 14 16 18 20 21 23 24 24 25 26 27 28 30 30
8 12 21 29 33 33 31 31 28 25 24 22 22 21 19 18 18 17 16 14 12 10 8 6 3 3 6 9 11 14 16 17 19 21 22 23 23 24 25 26 28 29 29 30
14 18 22 31 31 31 32 28 27 25 23 22 22 21 20 18 17 17 15 14 11 7 6 3 2 5 7 10 12 14 16 18 21 22 22 23 23 25 26 27 28 29 28 27
21 24 31 34 34 32 29 28 27 26 24 20 18 19 19 18 16 13 13 11 10 7 3 2 4 7 9 11 14 16 18 20 21 21 22 23 25 25 26 27 28 28 27 27
26 32 35 35 35 33 29 26 24 24 23 20 19 18 18 18 16 15 11 6 7 4 2 3 5 8 10 13 15 18 19 20 20 21 22 24 25 26 26 26 26 26 26 26
30 34 35 34 33 32 29 25 23 21 21 19 18 17 15 15 13 9 8 8 5 2 2 4 7 10 12 15 17 18 19 20 21 22 23 24 24 24 24 24 25 25 25 25
32 33 34 33 32 31 30 26 23 21 19 18 16 15 13 14 13 10 7 5 2 2 3 5 9 12 15 16 17 19 20 21 21 23 23 23 22 22 22 24 25 24 22 21
34 35 34 34 32 30 28 27 24 22 20 20 19 16 13 11 5 8 5 3 2 3 5 7 10 13 15 17 18 20 21 21 23 24 23 22 21 21 23 23 23 22 21 20
36 36 35 31 30 29 27 25 23 23 21 21 19 16 12 8 7 5 4 2 2 4 6 9 12 15 17 18 19 20 21 23 23 22 22 20 20 22 23 22 21 19 19 20
35 33 32 29 26 24 23 22 22 22 19 17 16 14 11 8 6 4 2 2 3 6 9 12 14 16 17 19 20 20 22 22 22 22 21 19 20 21 23 22 20 17 18 20

GFSNGP_850_spd_030.txt.gz
Wind_Speed
21 23 18 12 12 20 19 23 12 11 18 25 18 11 6 13 14 17 20 23 30 38 40 38 36 35 33 31 29 27 25 22 19 16 14 10 8 7 7 9 11 13 15 18
17 19 18 24 23 18 21 21 21 20 22 13 10 18 16 12 19 18 22 25 32 38 38 37 36 35 32 29 27 25 22 20 17 15 12 10 8 6 7 10 11 14 17 19
9 6 12 5 10 18 13 11 17 15 23 10 13 14 12 14 20 21 23 32 36 37 36 35 35 33 31 28 25 22 19 18 15 13 11 9 7 7 8 10 12 15 18 20
6 9 4 4 4 5 13 9 16 15 16 11 11 19 20 15 23 22 26 31 35 35 35 34 32 29 26 25 23 21 19 16 14 12 10 8 7 7 8 10 14 17 20 23
4 6 6 4 1 3 5 6 12 18 14 12 7 7 2 7 16 22 29 32 33 32 31 30 28 27 25 25 22 20 18 15 12 11 9 8 6 7 9 12 15 18 22 24
3 4 4 4 5 3 3 5 11 14 14 4 5 5 1 7 15 19 22 26 29 27 26 26 27 26 26 25 22 19 15 13 12 10 8 5 6 8 10 14 18 20 23 24
4 3 7 5 8 6 4 4 3 16 16 9 4 5 5 6 14 17 20 22 22 24 25 26 28 27 25 23 20 17 15 13 12 8 4 5 7 9 13 16 20 22 23 24
2 2 4 5 4 2 3 4 5 6 10 15 16 10 15 21 23 22 23 24 24 26 27 27 27 26 25 22 19 16 14 12 7 5 5 5 8 12 15 19 21 24 25 26
6 5 4 3 3 5 4 4 4 5 10 20 20 20 21 24 24 24 24 25 24 26 28 27 26 23 24 21 18 15 12 8 5 4 4 6 10 14 17 21 23 25 26 27
3 4 4 4 2 5 4 7 8 13 19 21 27 23 25 24 25 25 25 26 27 29 30 29 25 21 17 17 15 11 8 6 4 3 5 9 13 17 20 22 24 24 26 27
4 7 7 8 3 2 9 12 16 17 18 24 28 27 28 28 28 28 28 29 29 30 31 29 24 19 16 14 11 8 6 5 3 4 8 12 15 19 21 21 22 24 24 25
5 4 2 0 8 9 11 13 15 22 25 24 27 31 30 30 29 30 30 30 29 28 26 25 20 18 15 11 8 5 4 1 3 7 11 15 18 18 19 20 21 22 22 23
2 3 3 11 12 12 16 16 19 22 23 28 27 30 30 31 29 28 28 26 24 23 22 21 18 15 12 9 6 4 1 3 7 11 14 17 18 20 23 22 22 22 23 24
7 9 9 12 8 15 17 21 22 24 25 26 27 27 28 29 27 25 24 23 21 20 20 17 15 12 10 7 4 0 3 6 10 13 15 18 19 20 22 25 27 27 23 24
13 5 4 14 20 20 22 26 28 28 27 27 24 26 25 27 26 24 22 20 19 17 17 14 11 9 7 4 1 3 6 9 12 14 16 18 19 21 22 24 25 27 28 27
11 10 16 22 24 26 28 28 31 29 27 26 24 23 22 22 22 21 19 16 15 16 14 11 9 7 5 2 3 5 8 12 14 15 17 18 20 22 23 24 25 27 28 30
19 14 20 24 27 28 28 29 29 29 28 25 24 23 21 21 21 21 19 16 13 13 11 8 6 5 2 2 5 8 10 12 14 16 18 20 22 22 23 25 26 27 28 28
8 11 21 28 33 32 30 28 29 28 27 24 22 22 21 20 21 21 18 16 14 12 10 8 5 2 1 4 7 10 12 14 16 18 20 21 22 23 24 25 27 28 28 28
6 10 19 26 30 31 31 30 28 25 23 22 22 21 20 19 19 18 16 14 11 10 9 6 3 1 4 6 9 11 13 15 18 19 20 21 22 23 24 25 26 27 27 28
10 14 18 27 29 30 31 28 26 25 24 22 23 23 22 20 18 18 16 15 12 7 7 3 1 3 6 8 11 13 16 18 19 20 21 22 23 24 24 24 25 26 27 26
14 19 24 30 32 30 28 27 27 26 26 21 20 22 21 21 17 15 14 12 10 8 4 1 2 5 7 10 13 15 17 19 20 21 21 23 23 23 24 24 25 26 26 26
19 24 30 33 33 32 28 26 25 25 24 22 21 21 21 21 18 16 12 6 8 5 2 2 4 6 9 12 15 17 18 19 20 20 21 22 23 24 24 24 25 25 25 24
24 29 33 33 33 32 30 27 25 23 23 21 20 19 17 17 14 11 10 9 6 3 1 3 6 9 11 14 16 18 18 19 20 21 22 22 22 23 22 24 25 25 23 22
28 32 33 32 31 31 31 28 25 23 21 21 19 17 15 16 15 11 8 7 4 2 2 5 8 11 14 15 17 17 18 19 21 22 21 22 21 20 21 23 24 23 21 20
29 32 34 35 35 33 30 29 27 25 24 22 20 18 15 13 7 9 8 5 2 1 3 6 9 12 14 16 16 17 19 20 22 23 22 22 20 20 21 23 23 23 21 20
33 36 36 34 33 32 31 29 28 26 24 24 22 18 15 10 9 8 6 3 0 2 5 8 11 13 15 16 17 19 20 21 22 22 22 21 20 19 21 23 23 21 17 18
36 36 35 33 30 29 27 26 25 25 22 20 19 17 13 12 9 6 3 1 1 4 6 9 12 14 15 17 19 20 21 22 23 23 22 20 19 19 21 22 22 19 17 16

GFSNGP_850_spd_033.txt.gz
Wind_Speed
22 24 24 26 27 21 22 28 14 16 19 27 16 16 9 11 14 10 11 12 17 24 30 35 38 38 38 35 34 33 31 28 26 23 19 15 12 9 6 4 4 6 10 12
20 22 22 21 25 21 20 23 19 19 22 20 17 13 7 15 16 10 12 14 19 25 33 38 38 38 37 36 34 31 29 26 23 20 17 14 11 7 5 4 5 8 11 13
11 11 20 6 8 7 7 13 15 14 17 8 11 7 11 21 15 14 14 18 22 28 35 36 36 36 36 35 32 29 26 24 21 18 15 12 8 6 3 4 7 9 12 15
7 9 4 5 4 8 3 12 15 13 13 8 8 15 22 24 16 16 17 19 24 31 34 34 34 35 34 31 30 28 25 22 19 15 12 9 7 3 3 6 8 11 14 17
4 6 10 2 3 5 2 3 15 18 14 10 9 11 4 5 7 16 17 20 25 31 32 32 32 32 31 31 29 26 23 19 16 12 10 7 4 2 5 7 10 13 17 20
3 4 4 4 7 6 4 8 2 10 9 3 3 3 3 5 8 14 18 22 26 28 29 30 32 30 30 30 27 23 20 17 14 11 7 4 2 4 6 9 12 16 18 21
6 4 7 4 9 1 5 3 4 4 7 5 1 1 3 8 14 16 18 22 25 28 30 30 30 30 29 27 24 20 17 14 12 8 5 3 3 5 8 11 15 17 19 21
2 2 6 3 4 4 3 8 6 5 6 9 1 9 9 12 16 17 22 24 25 29 30 30 29 29 28 25 22 18 15 12 9 6 3 2 4 7 10 14 17 20 21 21
6 5 5 8 6 8 10 10 5 3 7 12 13 11 15 17 17 21 24 26 27 29 31 30 29 26 26 23 19 16 12 10 7 4 1 2 6 10 13 17 19 20 22 25
2 4 5 6 4 8 7 6 7 6 10 13 16 18 21 20 22 23 25 27 28 31 32 31 27 24 19 20 16 12 10 8 5 2 1 5 9 12 15 17 19 21 24 26
5 7 10 8 4 3 6 9 13 13 13 18 22 22 23 24 25 26 28 29 29 31 31 30 26 22 18 16 13 11 8 6 4 1 4 7 11 14 16 18 20 22 24 25
4 3 2 1 4 5 7 10 13 17 20 20 22 27 26 27 27 28 29 30 31 31 30 29 24 21 18 15 10 7 6 4 1 3 7 10 13 14 15 17 19 21 22 22
1 1 2 7 9 8 12 16 17 20 22 26 26 28 29 31 29 30 31 30 30 29 27 25 21 19 16 12 9 7 4 2 2 6 10 13 16 17 20 19 20 21 21 22
10 6 4 11 7 13 18 21 23 24 26 27 30 30 32 33 32 31 30 28 26 25 24 21 19 17 14 10 7 4 2 3 6 10 13 14 16 18 21 23 26 25 21 22
12 10 4 11 18 20 22 25 27 28 28 29 28 30 30 32 31 29 28 26 24 23 21 18 15 14 12 8 5 3 4 7 9 11 13 15 17 19 20 22 23 25 26 24
13 8 15 21 24 27 29 30 31 31 29 29 29 28 28 28 29 28 25 22 21 22 20 16 14 13 9 5 3 4 7 9 11 12 14 17 19 19 21 22 23 25 26 27
20 16 21 25 26 28 29 31 32 32 31 30 30 29 29 29 29 28 25 21 19 19 17 12 11 9 6 3 4 6 8 10 12 14 16 18 19 20 21 22 23 24 25 24
9 10 18 25 32 33 31 31 31 31 30 29 28 28 28 27 28 27 24 22 19 17 14 11 8 5 3 3 5 8 9 11 14 16 17 18 19 20 21 22 23 24 24 24
5 7 16 25 30 31 32 32 31 29 29 29 28 27 25 24 24 23 21 18 15 13 12 8 5 3 3 5 7 9 11 13 15 17 18 18 18 20 21 22 22 23 24 25
9 13 18 27 29 30 33 30 29 29 27 25 26 26 26 24 22 21 19 17 13 9 9 6 3 3 4 6 8 10 13 15 17 17 18 19 20 20 20 20 21 23 24 24
14 18 23 28 31 31 31 30 30 30 29 25 24 25 25 24 20 18 16 14 13 10 6 3 2 3 5 7 10 12 15 16 17 18 18 19 19 19 20 19 21 23 23 22
18 22 27 31 33 33 31 30 28 28 27 27 25 25 25 24 21 18 13 7 11 7 4 2 2 4 6 9 12 14 15 16 17 18 19 19 20 20 19 20 22 23 22 21
21 26 31 33 34 34 32 30 28 27 27 25 24 23 21 20 17 14 13 12 8 5 2 1 3 5 9 12 14 15 16 17 17 18 19 19 20 20 20 21 22 23 22 19
23 28 33 33 33 33 34 31 28 25 24 24 22 20 18 19 18 13 10 10 7 4 1 2 5 8 12 13 15 16 17 17 18 19 19 20 20 19 18 20 22 22 20 17
25 30 32 34 35 34 32 31 29 28 27 25 23 20 17 14 8 13 11 8 5 3 0 3 7 10 13 14 15 16 17 18 19 19 20 20 19 19 18 20 22 22 19 17
27 32 35 35 35 35 34 32 31 30 28 28 25 21 18 13 13 11 9 7 4 2 2 5 8 11 13 14 15 16 18 19 19 19 20 20 19 19 18 20 21 19 16 15
30 33 35 35 34 33 30 31 30 30 27 24 23 21 16 15 13 10 8 5 3 1 4 7 10 12 13 15 16 18 19 20 20 21 21 20 20 19 18 19 19 17 14 15

GFSNGP_850_spd_036.txt.gz
Wind_Speed
20 23 24 25 27 27 20 26 19 32 19 23 18 18 19 18 15 15 9 4 5 9 14 20 25 31 34 35 35 35 35 36 35 33 29 24 21 17 13 10 6 3 4 6
15 23 22 23 23 22 20 18 20 26 26 24 23 20 17 21 18 13 7 6 8 12 17 21 29 35 37 37 36 35 36 34 32 29 26 22 18 14 10 7 4 3 5 7
6 12 22 7 6 12 15 8 7 10 15 10 12 11 9 13 12 12 5 9 12 15 19 25 33 37 38 37 36 34 33 31 29 26 23 19 15 11 8 5 3 4 7 10
6 11 4 5 7 11 10 9 8 11 11 11 11 15 14 13 12 6 11 13 15 18 25 30 34 37 36 36 35 33 32 29 25 22 19 15 12 9 6 3 3 5 8 12
3 5 13 8 8 6 4 6 7 10 12 10 16 17 5 12 7 8 12 15 18 23 29 32 35 36 37 36 34 31 28 25 21 18 14 12 9 7 4 3 5 8 11 14
2 3 4 5 11 4 4 2 4 7 11 10 10 4 6 11 8 15 16 19 23 26 27 30 32 34 34 33 30 27 24 21 18 15 11 10 7 4 3 4 7 10 14 17
7 4 9 5 13 1 3 4 5 5 6 8 4 4 3 7 12 13 17 22 26 26 28 30 32 32 32 31 27 24 21 18 16 13 10 7 5 3 3 6 10 13 15 17
4 5 5 4 9 4 6 7 8 8 2 2 7 7 11 12 14 17 21 25 26 29 30 30 29 29 29 27 24 21 18 16 13 11 9 6 3 3 6 9 12 15 17 18
5 4 2 5 6 6 8 9 5 7 4 10 9 8 13 16 17 19 23 25 26 29 30 29 28 26 26 25 22 19 16 15 13 9 6 3 2 5 8 12 14 16 17 18
4 2 4 2 1 5 5 5 2 4 7 11 14 16 18 19 20 21 22 25 27 29 30 29 26 23 21 22 19 17 15 13 10 6 3 1 4 8 11 13 15 16 16 17
6 14 7 4 3 2 5 6 7 9 10 14 19 19 22 23 23 23 24 26 27 29 30 29 26 23 21 20 17 15 12 9 7 4 1 4 8 10 12 14 16 17 17 19
3 4 4 3 4 3 4 7 9 13 17 17 19 23 24 25 24 25 26 28 29 30 31 30 26 24 21 18 14 10 9 7 4 0 4 7 9 11 12 14 17 18 19 20
4 3 2 2 5 5 9 11 12 15 18 22 21 23 25 27 26 28 29 31 32 32 31 29 26 23 19 15 12 9 7 4 1 3 6 8 10 12 16 18 20 20 19 20
12 5 2 6 3 8 12 15 18 20 20 21 24 25 28 30 30 31 32 32 31 30 28 25 22 20 16 13 10 7 4 1 2 5 7 10 13 16 18 20 22 21 21 22
10 12 5 8 11 14 15 18 22 23 23 25 25 28 30 34 34 33 32 30 28 26 24 21 19 17 14 10 7 4 1 2 5 7 10 13 15 17 18 19 20 21 21 22
10 9 9 14 17 19 20 22 26 26 25 28 30 30 31 31 32 31 28 26 24 24 21 18 15 14 11 8 4 2 3 5 7 9 12 14 16 17 18 19 20 21 21 21
14 12 16 20 24 25 24 23 24 29 28 29 30 30 30 31 30 29 27 23 21 20 18 15 13 12 8 5 3 3 4 6 8 11 14 15 16 16 18 19 20 21 21 22
13 11 14 19 26 27 26 25 29 30 30 30 30 30 30 29 29 28 25 23 21 19 16 14 11 8 6 3 3 4 5 8 11 13 14 15 16 17 18 19 20 21 22 23
13 9 15 21 27 29 29 31 31 30 30 30 30 30 27 26 26 26 24 21 18 17 16 12 9 5 3 2 3 5 8 11 13 13 14 15 16 17 18 20 20 20 22 22
12 12 17 24 27 30 33 32 31 31 30 29 29 29 28 26 25 24 22 19 16 13 13 9 6 3 1 2 5 8 10 12 13 14 15 16 17 18 19 18 18 20 21 20
13 17 21 27 30 31 32 32 33 32 31 28 28 29 28 27 25 22 21 18 17 13 10 7 4 1 2 5 7 10 12 13 14 15 16 17 18 18 18 18 18 20 21 20
16 20 25 30 32 33 33 33 32 32 31 31 28 28 28 27 25 21 16 12 15 12 8 5 2 1 4 7 9 11 13 14 15 16 17 17 18 18 18 18 19 20 21 20
17 21 27 31 34 36 36 34 33 29 29 28 29 28 26 25 23 21 18 16 12 9 6 4 1 3 6 9 11 12 14 15 16 17 17 18 18 18 18 18 19 21 21 19
18 23 29 32 34 35 36 33 31 29 28 28 26 24 23 24 21 16 13 14 10 7 5 2 1 5 8 10 12 13 15 16 17 17 17 18 18 18 18 18 19 20 20 17
19 24 28 32 35 36 35 34 33 31 29 28 26 24 21 18 13 16 15 11 9 6 3 0 3 7 10 11 13 14 16 17 18 18 18 18 18 18 18 18 19 20 19 16
20 25 30 33 34 36 36 34 34 34 33 32 28 25 22 17 15 15 13 10 7 5 2 2 6 9 11 12 13 15 16 17 18 18 18 18 19 18 18 18 18 18 15 12
24 28 32 32 34 35 33 34 33 34 32 30 29 25 20 18 17 14 11 9 6 3 1 4 7 10 11 13 14 15 17 18 18 19 19 19 19 18 18 18 18 16 11 12

GFSNGP_850_spd_039.txt.gz
Wind_Speed
18 20 19 17 21 22 19 21 15 30 26 28 21 18 12 24 26 26 18 10 8 6 10 14 18 21 23 24 27 30 34 34 35 34 32 30 27 24 21 16 11 7 5 5
14 18 14 16 20 18 18 18 15 18 21 19 13 16 12 18 19 18 7 5 6 8 12 17 20 20 24 27 33 36 36 37 36 33 29 28 24 20 16 12 8 5 4 6
5 10 19 9 4 9 12 12 7 8 8 11 10 10 11 16 15 11 10 8 10 12 15 17 22 26 29 34 37 36 37 37 33 29 27 24 20 16 12 8 5 3 5 7
5 12 3 1 3 10 7 7 10 11 14 12 11 13 4 9 9 9 9 14 14 15 17 21 25 30 34 36 36 36 34 31 28 26 23 20 15 12 9 6 4 4 6 9
3 6 16 5 9 7 2 4 8 10 11 10 15 7 8 19 13 13 14 15 16 17 21 24 28 33 36 37 36 33 31 27 24 21 18 16 13 10 6 4 3 6 8 11
3 5 4 6 12 5 5 1 2 4 11 11 16 5 4 15 16 17 15 17 22 24 23 27 33 34 36 34 30 27 25 25 23 19 15 13 10 7 3 3 5 7 10 13
7 4 8 9 11 2 6 6 11 3 10 10 6 5 6 9 17 18 17 24 26 25 27 28 28 28 29 27 25 25 24 22 19 16 12 10 6 3 3 3 6 10 12 13
4 5 6 6 9 5 8 12 8 3 3 8 8 8 11 13 18 22 22 22 22 27 26 24 24 27 27 26 25 22 19 17 14 12 8 6 5 2 2 5 9 11 13 14
7 4 10 14 10 10 7 12 6 0 3 9 9 8 9 13 16 19 19 21 23 26 28 25 24 21 23 23 21 19 17 14 11 10 7 4 1 2 6 9 11 12 13 13
3 4 4 14 8 5 7 5 4 2 6 9 9 10 12 14 16 18 19 21 23 26 27 25 21 20 19 20 19 16 15 13 11 7 4 1 2 5 8 9 10 11 13 16
8 13 3 4 6 4 4 5 6 6 6 9 13 14 15 16 17 19 21 23 23 23 25 26 23 22 22 20 18 15 13 10 7 4 2 2 4 7 9 11 13 16 17 19
5 5 3 4 4 4 3 5 7 10 12 12 14 16 17 17 19 21 24 24 24 26 28 27 24 23 21 17 13 11 9 7 5 2 1 4 6 9 11 13 15 16 16 17
12 1 2 1 1 2 4 6 9 12 13 16 15 18 18 20 20 23 24 25 28 29 28 26 24 21 18 15 11 9 7 5 3 0 3 6 8 10 13 15 17 18 19 19
7 4 2 5 2 5 8 11 13 15 15 15 17 19 22 24 26 26 27 28 29 28 26 24 21 19 15 12 9 8 6 3 1 3 5 8 11 13 14 15 17 16 16 17
9 8 4 7 9 11 11 14 16 16 18 17 18 22 25 28 29 30 29 29 27 25 23 20 18 17 14 11 8 5 2 1 3 5 7 11 13 14 14 16 16 17 18 17
8 8 9 10 13 15 17 17 18 19 20 21 22 24 26 29 30 29 27 24 23 23 20 18 16 15 12 8 5 2 1 3 5 8 11 12 14 14 15 16 16 16 17 18
8 8 14 16 18 18 16 17 19 22 24 24 26 27 28 29 28 27 25 21 21 20 18 15 14 12 8 5 2 2 4 6 9 10 12 13 14 15 16 16 16 17 17 18
11 8 14 14 21 22 20 19 21 23 25 27 28 29 29 28 28 26 24 22 20 19 16 13 11 8 5 3 3 4 5 8 10 12 13 14 15 16 16 16 17 17 19 20
11 8 10 13 19 21 23 23 24 25 26 27 28 28 27 25 25 24 23 20 18 17 16 12 9 6 3 2 3 5 7 10 12 13 14 15 16 16 16 17 18 18 19 21
11 8 10 15 20 22 25 25 26 27 27 28 28 27 26 25 23 23 21 19 16 14 13 10 7 4 2 2 4 7 10 11 13 14 15 16 17 17 18 18 18 19 20 20
7 8 11 16 20 22 25 27 29 29 29 27 26 26 25 25 24 21 20 18 16 14 10 8 5 2 1 4 6 9 11 12 14 15 17 17 18 19 19 19 19 19 20 20
7 9 12 17 21 24 25 27 29 29 28 28 26 25 26 26 24 22 17 13 16 12 9 6 4 1 2 6 8 10 12 13 15 16 18 18 19 20 20 20 19 19 20 20
8 10 13 18 21 25 27 28 28 28 28 26 26 25 25 24 22 20 19 16 14 11 8 5 2 1 4 7 9 11 13 14 16 17 19 18 19 20 20 20 19 19 20 19
9 11 15 21 25 27 29 29 28 27 25 24 24 24 24 25 23 17 13 15 12 9 6 4 1 3 6 8 11 13 14 16 17 18 18 19 20 20 19 18 17 18 18 17
12 14 18 22 26 29 31 31 30 27 25 26 25 24 23 21 16 17 16 14 11 8 6 3 2 5 7 10 12 13 15 16 18 18 18 19 19 18 17 17 17 18 17 14
11 14 18 22 28 30 31 32 32 29 28 29 28 25 23 19 15 15 16 12 10 7 5 3 3 6 9 11 12 14 15 17 17 18 18 18 17 16 16 17 17 16 14 11
13 16 21 24 25 29 32 34 32 30 31 31 30 27 23 20 17 17 14 11 9 6 4 3 5 8 10 11 12 14 16 17 17 18 17 17 16 16 17 17 16 14 10 11

GFSNGP_850_spd_042.txt.gz
Wind_Speed
9 12 11 10 12 13 13 16 12 23 24 26 22 22 22 19 17 21 24 26 16 6 4 7 11 19 25 28 28 28 26 28 31 32 31 33 32 30 25 22 20 15 11 7
5 11 14 15 15 13 15 17 18 18 21 15 22 16 13 20 19 19 19 9 6 5 9 12 19 24 27 27 24 24 28 34 35 36 36 34 30 26 23 19 15 10 5 4
4 7 11 7 7 10 7 10 9 9 15 15 15 11 10 10 17 17 16 4 9 11 16 19 23 25 25 26 27 29 34 37 37 36 33 29 26 23 20 16 12 8 4 2
4 8 2 2 7 7 9 6 4 13 13 12 12 8 20 18 17 16 13 11 14 18 19 18 18 20 25 29 32 34 36 37 33 30 28 25 22 19 16 13 8 4 1 5
2 3 7 7 3 3 3 5 6 8 9 11 16 6 11 20 18 14 14 16 18 17 16 17 20 23 27 32 33 33 32 31 29 27 25 23 20 15 11 7 4 0 4 7
2 3 3 1 3 4 6 3 3 4 7 11 13 3 3 13 14 14 15 13 14 14 18 23 25 26 32 33 33 31 30 29 27 22 16 14 14 12 8 3 1 2 5 8
5 3 7 5 8 8 4 4 2 2 5 9 4 5 6 11 14 15 18 19 20 23 26 28 29 28 31 31 29 28 25 19 19 18 19 15 11 5 3 1 1 4 7 10
4 4 6 3 8 1 3 7 9 2 2 10 12 11 13 17 16 21 22 20 21 25 26 26 29 29 29 27 23 23 23 23 21 17 14 9 7 5 2 2 4 7 9 10
7 5 8 18 4 4 7 7 4 2 4 10 13 12 13 18 21 22 23 23 25 28 28 24 22 24 27 27 26 26 23 20 18 14 12 8 5 3 2 5 7 9 11 13
4 6 4 6 7 8 6 5 2 5 5 7 11 13 14 16 16 20 23 27 27 27 28 28 26 26 26 26 24 23 19 15 13 10 8 6 3 4 6 8 9 12 14 16
5 8 1 6 7 5 5 5 4 6 8 8 9 14 17 19 20 21 22 19 22 25 25 25 24 26 25 22 17 14 13 12 10 7 5 4 5 7 9 10 12 14 16 17
3 3 1 2 4 3 2 5 6 8 9 10 11 16 18 20 20 22 21 19 21 24 26 27 25 22 19 15 11 10 10 9 7 5 5 5 7 8 9 12 15 16 15 16
2 3 2 1 2 1 3 5 7 10 11 15 15 17 19 22 20 20 19 20 24 26 26 25 22 20 16 13 10 8 7 7 5 4 5 6 7 10 12 12 13 13 14 16
5 6 2 4 4 4 5 10 12 13 14 15 16 17 20 22 21 21 22 25 26 26 24 21 19 16 13 10 7 7 5 4 3 5 5 7 10 12 13 14 16 16 15 16
7 7 7 7 8 9 10 12 15 15 16 17 17 20 22 24 24 25 27 27 26 24 22 18 15 14 11 8 6 4 3 3 4 5 7 10 11 13 14 15 16 17 18 17
4 8 7 8 10 12 13 14 14 18 18 20 22 22 23 25 27 28 26 24 23 22 19 16 13 12 9 6 4 3 3 4 5 7 10 12 13 14 15 16 16 17 18 18
4 5 10 12 13 16 15 14 15 19 21 22 23 25 27 28 29 27 25 22 19 19 16 13 11 10 7 5 3 3 3 4 7 10 12 13 13 15 15 16 17 18 18 18
10 9 9 13 17 18 18 17 19 21 23 23 25 28 29 29 28 26 24 22 20 18 15 13 10 8 5 3 2 2 4 7 10 11 12 13 14 15 16 17 18 18 18 19
11 8 6 9 16 19 20 21 22 22 23 25 28 29 27 25 24 23 22 19 17 16 16 12 9 6 4 2 2 4 6 9 11 12 13 14 15 16 17 17 18 18 19 20
6 6 7 11 16 20 22 23 23 24 25 27 27 26 26 24 22 22 20 18 15 13 13 10 7 5 3 2 3 6 8 10 12 12 14 16 16 17 17 17 18 18 18 19
2 5 9 14 17 18 22 23 25 27 29 27 26 26 25 25 23 21 20 19 17 14 11 9 6 4 2 2 5 8 10 11 12 14 15 16 16 17 17 17 17 17 18 19
3 4 8 12 16 20 22 24 26 29 29 27 26 25 26 25 23 21 16 12 16 14 11 7 5 3 1 4 7 9 10 11 13 15 15 16 16 17 17 17 17 17 17 16
5 4 7 11 16 19 22 24 27 27 28 27 26 25 25 24 22 21 21 17 15 12 9 7 4 1 2 5 8 10 11 12 14 15 16 16 16 17 17 17 17 16 15 14
6 5 7 11 15 21 24 25 27 28 26 25 24 23 23 24 22 18 14 16 15 11 9 6 4 1 4 7 9 10 11 13 15 15 16 17 17 16 16 17 16 14 13 12
7 6 9 13 17 21 24 27 28 28 27 25 24 24 22 20 17 19 16 16 14 10 9 6 3 2 5 8 9 10 12 14 15 16 17 17 16 16 15 15 15 14 13 10
8 7 9 12 18 21 25 27 29 30 29 29 26 24 23 21 18 16 16 16 13 11 8 5 3 3 6 9 9 11 13 14 15 16 17 16 16 15 15 14 13 12 11 9
9 10 11 15 18 19 23 27 30 32 30 28 26 27 25 22 19 17 18 15 12 10 7 5 3 5 8 9 10 12 13 14 15 16 16 15 15 15 14 13 12 11 11 11

GFSNGP_850_spd_045.txt.gz
Wind_Speed
4 6 4 6 7 9 11 18 9 24 22 22 21 20 20 9 17 18 22 23 22 22 13 8 10 13 16 23 28 31 30 27 28 27 26 27 30 32 32 29 26 22 18 13
5 8 8 6 11 12 12 16 17 23 26 15 17 27 15 12 16 19 25 21 8 6 5 8 13 17 22 25 26 26 26 24 24 25 29 32 34 32 28 24 22 18 13 12
4 4 6 5 7 12 7 5 6 7 10 14 17 12 12 15 18 19 17 9 7 6 9 14 18 20 20 20 20 20 21 22 26 29 33 35 31 27 24 22 18 15 11 6
3 4 1 5 4 6 10 8 7 7 12 11 15 9 15 16 15 18 5 4 11 11 14 18 20 20 18 17 18 20 24 28 31 32 30 28 27 25 21 16 12 7 7 6
2 2 6 1 2 2 3 4 2 5 9 12 14 6 7 14 12 10 11 13 13 14 15 16 16 18 17 18 21 25 28 27 27 28 27 25 24 21 16 11 9 8 4 3
2 1 3 3 4 3 4 3 2 4 6 8 10 3 2 9 8 9 11 11 11 11 12 13 17 20 21 24 22 23 23 26 24 24 23 21 17 16 14 10 7 3 4 5
6 4 6 8 6 8 1 4 2 3 2 5 2 2 3 5 9 10 9 10 12 13 15 16 14 13 19 20 22 24 26 27 23 18 16 14 14 14 10 6 6 4 4 5
4 3 7 5 5 1 3 4 3 2 5 9 9 9 10 13 12 10 12 14 13 17 18 18 20 22 30 31 30 27 23 21 20 17 19 15 8 7 8 4 2 3 5 7
7 6 7 5 4 3 5 4 2 4 8 10 12 12 12 14 15 18 15 16 19 20 21 23 26 25 27 26 23 21 20 20 18 15 11 10 8 6 3 2 3 5 6 9
3 5 9 4 1 2 4 2 1 6 11 11 14 16 16 15 16 19 20 21 22 22 23 23 23 22 22 24 23 21 20 17 13 12 12 9 5 3 1 1 3 6 9 11
4 6 3 2 1 3 3 1 3 7 11 12 12 16 18 20 20 18 18 20 20 22 24 24 24 25 23 21 20 18 16 16 14 11 8 5 3 1 1 4 8 10 12 12
4 4 2 2 3 3 3 1 4 9 12 11 12 17 20 22 24 23 22 21 21 22 23 24 24 23 22 19 17 16 15 13 11 8 6 4 3 4 7 10 11 13 14 14
6 6 4 3 4 3 3 3 5 8 10 15 15 19 22 24 21 20 22 24 25 26 27 27 25 22 19 17 14 12 12 11 8 6 4 4 5 7 8 9 10 10 11 12
11 7 4 8 4 4 4 6 9 10 11 13 18 20 22 23 22 21 23 25 27 28 27 24 22 20 17 14 12 10 9 7 5 5 5 7 9 10 11 12 13 13 12 13
4 8 8 7 7 7 7 10 12 13 14 16 17 20 21 22 23 24 26 28 27 26 24 21 19 18 14 11 8 7 6 5 5 6 7 9 10 10 11 13 14 15 15 14
2 4 5 6 8 10 12 14 13 15 15 17 19 20 20 23 25 27 27 26 26 25 21 18 15 15 12 9 5 4 4 4 5 6 8 9 10 12 13 14 15 16 16 17
9 5 8 9 12 14 15 14 12 16 17 19 19 21 23 26 26 26 25 23 21 20 17 14 13 12 9 6 3 3 3 4 5 7 9 11 12 14 15 15 15 16 16 16
15 11 10 11 12 16 17 15 15 17 18 19 21 23 25 27 28 27 26 24 22 20 16 13 11 9 6 4 3 2 3 5 7 9 10 12 13 14 14 15 15 15 16 15
5 10 11 6 9 15 16 16 19 17 19 22 24 26 25 25 25 25 24 22 20 19 17 13 10 7 5 3 2 2 4 7 8 9 11 12 12 13 14 14 15 15 15 15
3 4 5 7 10 14 16 18 19 19 21 24 25 26 27 25 23 23 22 20 16 13 15 12 9 6 4 2 1 3 6 7 9 10 11 12 13 13 13 14 15 14 13 14
7 3 4 8 10 12 16 18 21 23 25 25 26 26 26 24 23 23 23 22 19 15 13 11 8 6 4 1 2 4 7 8 9 10 12 12 12 12 13 13 13 13 13 14
7 4 2 7 12 14 16 19 21 23 26 27 27 25 26 25 24 22 19 15 18 16 13 10 7 6 3 2 3 5 7 8 9 11 11 12 12 13 12 12 13 12 13 13
7 4 3 7 11 13 16 19 22 24 27 28 28 27 26 24 24 25 23 19 16 14 12 10 8 5 3 3 5 7 7 9 10 11 12 13 13 12 12 13 13 13 13 12
7 5 5 6 8 12 17 19 21 24 25 26 26 26 25 25 24 21 16 16 17 14 12 10 8 5 3 4 6 7 8 10 11 11 12 13 13 12 12 13 12 12 12 11
9 7 5 7 8 11 15 19 21 24 26 26 26 25 24 22 20 22 19 18 17 15 12 10 8 5 4 6 7 7 9 11 12 12 13 13 12 12 12 13 12 12 10 9
9 7 6 7 9 11 15 19 23 26 28 29 28 27 25 22 21 19 19 18 17 15 13 10 7 5 5 7 7 8 10 12 12 13 13 13 12 12 13 11 10 10 10 10
11 9 8 9 12 13 15 19 23 27 29 29 29 29 26 25 23 21 20 20 17 14 12 10 8 6 6 7 8 9 11 12 13 13 13 12 12 13 11 10 10 11 11 10

GFSNGP_850_spd_048.txt.gz
Wind_Speed
4 6 3 4 5 7 9 18 6 15 13 22 19 19 19 16 15 18 24 21 21 23 5 9 11 12 9 9 12 18 21 24 22 24 24 22 24 26 28 28 27 26 24 21
5 5 7 6 9 10 13 15 14 23 25 21 26 17 9 13 16 20 23 17 13 5 2 3 5 5 6 5 9 15 18 20 22 24 22 23 24 25 25 25 24 22 22 19
4 3 3 5 11 15 6 6 8 9 11 6 11 7 7 13 15 18 24 7 6 3 3 4 4 4 4 7 11 15 17 20 22 21 22 23 24 24 24 24 24 20 17 14
3 3 1 6 2 6 11 9 9 10 8 8 9 3 6 10 13 14 12 4 3 3 4 5 6 7 8 11 11 13 15 17 18 18 19 22 24 23 23 22 20 16 10 6
1 2 6 2 1 1 5 6 3 4 6 9 11 5 1 13 9 9 8 5 5 5 7 9 9 10 11 12 11 11 12 13 15 15 20 20 22 24 21 16 13 12 8 6
2 0 3 3 1 3 3 4 4 4 4 4 6 2 2 11 6 6 5 5 5 6 7 8 11 10 7 11 10 12 14 15 19 21 23 23 21 19 16 12 9 6 2 2
3 3 6 7 4 5 1 4 3 5 5 0 1 0 2 4 5 5 4 4 3 5 8 10 11 11 15 16 15 17 21 23 23 22 21 17 14 12 11 8 6 5 3 3
3 3 7 3 2 2 3 3 6 6 7 7 7 7 5 5 5 6 6 5 5 6 10 12 14 16 16 18 20 21 24 23 20 17 16 15 12 11 10 7 5 3 3 5
6 5 6 5 5 8 8 8 6 8 10 8 10 8 8 8 9 11 11 11 11 13 13 13 12 15 23 24 22 20 18 19 18 16 15 13 10 9 6 4 1 3 5 7
1 4 12 20 13 7 6 6 6 8 12 12 11 13 12 11 12 15 14 16 18 18 20 21 20 20 19 19 18 17 17 16 14 13 12 10 7 4 1 2 4 6 9 12
5 7 6 6 7 6 5 5 4 7 12 13 12 14 14 15 14 15 17 16 15 16 18 19 18 17 17 17 16 15 14 13 12 9 8 5 2 1 2 5 7 9 9 10
4 4 5 6 5 6 6 5 4 9 13 13 13 14 17 17 17 16 17 17 16 16 16 18 16 16 15 14 11 10 11 10 8 5 3 1 1 3 5 7 8 9 10 10
4 14 11 9 7 8 7 5 5 8 11 14 15 15 17 21 19 18 18 18 18 18 18 18 16 15 13 10 9 8 6 7 5 4 3 1 2 4 5 6 7 8 9 11
14 11 9 11 7 7 6 5 6 7 10 12 15 17 18 20 20 19 20 20 19 19 20 20 18 16 15 13 11 9 8 7 5 4 2 1 3 5 6 7 8 9 10 11
10 7 10 9 8 8 7 7 8 10 12 15 17 19 20 21 21 21 22 23 22 23 22 20 19 17 15 12 10 9 7 6 4 2 1 3 5 7 8 9 10 11 11 11
13 9 7 6 7 9 10 10 11 12 14 16 17 19 20 19 21 22 23 25 27 26 22 20 17 16 14 11 9 7 6 4 1 2 4 5 6 8 9 10 11 12 12 12
13 12 12 11 11 11 13 11 12 12 14 16 17 19 20 22 23 25 27 26 23 21 19 17 16 15 13 10 7 5 3 1 2 4 6 7 8 9 10 11 11 11 12 12
14 17 17 12 13 12 14 14 14 14 16 15 17 20 22 24 26 27 27 26 24 22 19 16 14 13 10 8 6 4 1 3 4 6 7 8 9 10 10 10 10 11 11 12
6 5 9 13 12 11 13 14 15 15 15 18 19 21 22 24 25 27 28 27 25 23 20 18 14 11 9 7 5 3 3 4 6 6 8 9 10 10 10 10 11 11 12 13
7 2 3 3 3 8 13 15 13 13 16 18 20 22 24 25 26 27 26 25 21 18 18 16 13 11 8 7 4 3 4 5 6 7 9 10 10 10 11 11 11 12 12 12
9 7 4 3 4 6 9 11 13 18 19 20 21 23 25 26 26 26 26 25 22 19 17 15 12 10 8 6 4 4 5 6 7 8 10 11 11 11 12 12 12 13 12 12
10 8 5 4 6 8 9 12 15 17 19 21 23 25 26 27 27 26 24 21 21 20 18 15 13 10 8 6 5 5 6 7 8 10 11 12 12 12 12 13 13 13 13 13
11 8 6 5 6 8 11 13 16 18 20 23 26 27 28 27 27 28 27 24 21 19 18 15 13 10 8 7 6 7 7 8 9 11 12 13 13 13 13 13 14 14 13 13
12 9 7 6 7 10 13 14 16 18 19 22 24 25 27 28 27 25 22 20 20 20 18 15 13 11 9 8 7 7 7 9 11 12 12 14 14 14 14 15 14 13 13 13
12 10 8 6 6 9 11 13 15 18 20 22 24 25 25 24 24 23 24 21 21 21 18 15 14 12 10 8 8 8 9 10 12 12 13 14 14 14 14 14 13 12 12 11
11 11 9 8 8 9 10 13 16 18 20 23 25 26 26 26 24 23 22 21 21 20 18 15 14 12 10 9 9 9 10 11 13 14 14 15 14 14 14 13 12 12 13 13
11 12 11 9 9 11 11 13 15 18 21 23 25 27 27 27 26 23 23 22 22 20 18 16 14 12 10 10 9 10 12 13 14 14 15 14 14 14 13 12 12 13 14 14

GFSNGP_850_spd_051.txt.gz
Wind_Speed
4 5 2 4 4 7 8 10 6 5 7 19 17 16 17 11 17 20 23 26 17 16 14 10 10 11 11 11 12 11 10 7 10 13 15 17 19 20 19 21 22 22 26 25
4 4 7 5 8 9 10 9 11 18 23 23 22 11 8 9 13 16 19 23 11 10 8 7 8 7 7 8 7 5 2 7 11 13 17 20 20 22 19 19 21 24 23 21
4 4 3 5 9 12 5 5 9 12 14 5 6 8 4 9 11 13 15 15 12 9 9 8 8 6 6 4 4 2 7 13 13 16 19 19 19 17 19 22 22 20 18 16
3 3 1 6 4 6 13 10 12 12 12 8 5 6 2 8 10 11 11 10 9 7 6 5 4 2 2 4 6 6 5 6 8 11 14 15 17 19 21 19 19 18 17 13
1 2 6 2 3 5 5 6 5 7 6 6 7 4 3 10 7 7 8 6 5 4 3 2 3 5 6 9 6 6 7 9 9 10 15 18 16 18 19 20 17 12 9 6
1 1 3 2 3 1 4 3 5 4 4 2 4 2 1 8 6 4 4 2 2 1 1 2 5 4 5 9 10 12 14 19 21 22 20 20 22 21 18 14 13 10 9 7
3 3 6 7 3 5 2 4 3 4 6 3 2 2 1 4 5 3 2 2 1 1 3 3 3 2 5 10 13 14 15 17 18 20 22 20 19 15 13 12 10 7 4 2
4 3 6 4 2 2 3 5 6 5 7 5 5 5 2 2 5 4 3 4 4 4 6 6 5 6 8 15 18 17 20 20 19 17 17 14 13 14 13 10 7 4 2 1
7 5 5 3 3 7 10 9 7 5 7 9 8 8 5 5 7 7 7 8 9 9 9 12 8 8 19 20 19 18 17 18 17 17 16 15 13 11 8 5 1 1 4 6
1 4 9 15 13 13 9 9 8 7 9 13 10 11 9 8 9 10 10 11 15 17 18 18 18 19 18 17 16 15 16 16 15 13 12 11 8 5 3 1 1 3 5 7
5 9 17 8 6 6 8 9 7 7 9 14 13 13 12 12 11 11 11 13 14 16 18 18 16 15 15 15 14 14 13 13 11 9 8 6 4 3 2 3 6 9 11 11
4 3 3 10 8 7 10 9 7 8 9 14 14 13 14 14 13 12 11 13 14 15 16 17 15 15 14 12 10 8 9 9 7 5 4 3 3 5 7 9 11 12 13 13
6 12 18 15 12 10 9 7 7 7 9 13 16 15 16 17 15 14 13 13 13 14 14 15 14 12 11 9 7 6 4 5 4 3 3 3 5 6 8 9 11 11 12 13
12 8 10 11 8 7 8 7 6 7 9 11 14 14 16 18 17 16 15 13 12 12 13 13 12 10 9 8 6 3 2 1 1 3 4 5 6 8 9 10 11 11 12 12
11 10 11 13 9 9 9 9 8 8 10 12 14 16 17 20 20 19 17 16 15 14 13 12 10 8 8 6 4 4 3 4 4 4 5 6 8 9 10 11 11 12 11 11
21 16 11 9 9 9 9 10 10 11 11 12 14 16 16 16 17 18 18 18 19 19 16 13 11 10 9 8 7 6 5 5 5 5 6 7 8 9 10 11 11 11 11 12
18 17 12 15 13 10 10 10 10 11 12 13 13 16 18 18 19 19 20 20 19 18 17 14 13 12 11 10 8 7 6 5 5 5 7 7 8 9 10 11 11 11 11 11
11 16 17 20 20 14 13 13 13 13 13 13 14 16 19 20 21 22 21 21 21 21 18 16 15 14 12 10 8 7 6 5 5 6 7 8 9 10 11 10 11 11 11 11
7 10 10 11 13 16 15 13 14 13 12 14 16 18 18 19 20 21 23 25 26 24 22 19 16 15 12 10 8 7 6 6 7 8 8 10 11 11 11 11 11 11 12 11
7 6 5 5 6 8 9 11 11 11 11 13 14 16 18 19 20 23 26 26 24 21 20 19 17 15 12 10 8 7 7 7 9 9 10 11 11 12 12 12 12 12 12 12
10 10 8 5 4 2 5 8 9 11 12 13 15 17 17 19 22 24 27 27 24 22 20 19 17 15 12 10 9 8 8 9 10 10 11 12 12 13 13 13 13 14 13 13
13 11 10 7 5 3 5 6 8 9 11 12 15 17 19 22 24 25 25 24 24 24 21 20 17 14 12 11 10 9 9 10 10 11 12 13 14 14 14 14 14 14 14 14
14 13 11 8 7 7 7 7 8 10 11 14 15 19 21 22 24 27 28 25 25 23 20 19 17 15 13 12 10 10 10 11 12 12 14 14 15 16 15 15 15 15 14 14
14 12 11 10 8 7 7 8 9 10 11 13 15 17 21 24 25 26 24 23 23 22 20 20 18 16 14 12 11 11 12 12 13 13 14 15 16 16 16 16 15 15 14 13
14 13 12 10 8 8 8 8 9 10 12 14 16 18 21 23 24 23 24 23 23 22 22 21 19 17 15 13 12 12 13 13 14 14 15 15 16 16 16 16 15 14 13 13
16 16 14 13 12 11 10 11 11 11 12 14 16 18 21 23 24 23 23 23 22 22 23 22 20 17 15 14 13 13 13 14 14 15 15 16 17 16 15 15 14 14 14 15
16 17 15 13 11 13 12 12 12 12 13 14 15 17 21 23 25 25 24 24 23 23 23 23 20 18 16 15 14 14 14 14 14 15 16 16 16 16 15 14 13 14 15 16

GFSNGP_850_spd_054.txt.gz
Wind_Speed
2 4 3 4 4 7 6 5 6 4 6 12 12 12 18 7 13 17 20 20 17 17 15 14 15 15 16 17 17 16 12 9 6 5 6 7 10 11 14 16 17 18 20 21
3 3 5 4 7 8 9 6 10 15 19 20 24 14 9 10 13 15 15 13 14 12 11 13 15 15 16 14 13 13 10 4 4 5 6 8 9 12 14 14 14 17 19 19
3 4 5 5 8 12 6 6 11 10 14 9 6 5 5 7 11 11 10 11 11 11 12 14 14 14 13 11 9 7 4 3 2 2 5 7 8 8 11 13 16 17 16 14
2 4 1 5 2 5 13 8 14 9 11 10 9 6 3 5 8 7 7 8 7 8 9 10 10 9 7 6 5 5 6 7 6 6 8 10 10 14 19 20 18 17 15 14
1 3 6 2 3 6 6 4 8 13 9 8 4 2 5 5 6 5 5 5 5 6 6 6 5 7 7 7 6 5 7 9 11 9 14 13 16 17 17 16 18 17 15 12
3 2 4 3 2 1 4 3 3 6 4 2 1 4 1 4 5 4 3 4 3 3 4 4 7 8 7 6 7 10 11 12 13 13 13 15 17 18 19 17 15 13 11 8
3 2 6 8 5 3 3 4 2 6 7 5 3 3 1 3 4 3 3 3 2 1 1 4 5 6 5 6 9 11 11 13 12 13 16 17 16 15 14 12 12 12 9 7
3 3 7 5 3 2 3 3 4 6 8 8 6 4 2 1 2 4 4 3 4 3 4 5 6 5 8 14 15 15 15 16 17 16 16 15 13 15 14 12 9 8 6 4
7 5 5 4 5 9 11 12 6 5 5 8 8 8 5 3 3 5 7 8 7 7 10 10 7 10 15 18 17 16 16 16 16 16 16 14 12 11 9 7 6 5 5 5
1 3 7 14 15 19 14 9 7 8 7 10 11 10 9 7 6 7 10 12 13 13 14 16 16 16 16 16 13 14 15 15 14 12 11 10 8 8 7 6 6 6 6 6
4 8 14 10 8 7 6 8 9 9 8 10 13 12 11 11 10 7 10 14 14 15 17 17 14 14 14 13 13 13 12 12 11 9 8 7 6 6 5 5 6 7 9 10
3 3 3 7 9 11 11 10 10 9 8 9 13 12 12 13 12 11 11 13 15 15 14 15 14 14 14 12 10 8 8 8 7 5 5 4 4 6 9 12 12 11 11 11
4 13 19 21 18 13 12 10 8 7 7 9 13 14 13 14 14 14 14 14 13 14 13 14 13 11 11 10 8 6 4 4 3 3 4 6 8 9 9 9 9 10 11 11
6 11 5 4 5 10 10 10 9 8 7 9 12 15 16 15 17 17 15 14 15 15 14 13 12 10 9 8 6 4 3 2 3 5 6 7 8 8 9 10 11 11 12 12
10 10 14 15 12 10 10 11 11 9 8 10 13 14 17 18 19 19 17 16 16 15 15 13 11 9 9 7 5 3 1 3 4 5 6 7 8 9 11 12 13 13 12 12
19 20 16 14 13 11 11 11 12 10 10 11 12 14 14 15 17 18 19 18 17 17 15 12 9 7 7 5 4 2 2 3 4 6 7 8 9 11 12 13 13 13 13 13
16 16 15 16 12 11 12 12 11 11 10 11 11 13 15 17 18 21 21 20 17 15 13 12 9 9 7 6 5 5 5 5 6 7 8 9 10 12 13 14 13 13 13 13
13 15 16 17 19 18 19 15 14 13 13 11 12 15 17 19 19 20 21 21 20 19 18 15 12 11 9 9 8 8 7 7 7 8 9 10 11 13 14 14 14 14 14 13
7 10 11 11 12 13 13 15 15 13 12 12 14 16 16 17 18 18 19 21 22 23 22 18 15 14 12 11 10 9 8 7 7 8 9 10 12 14 14 15 14 15 15 15
6 7 7 6 6 7 7 8 9 11 11 12 13 14 16 17 18 19 20 22 24 22 20 18 17 15 14 12 11 10 8 8 8 9 10 11 13 14 15 16 15 15 15 16
10 10 10 9 6 7 3 2 5 8 10 11 12 12 12 13 17 19 21 24 23 20 20 18 17 16 14 13 11 10 9 9 9 10 11 12 14 15 16 16 16 16 16 16
13 12 11 9 7 6 5 3 4 7 8 9 10 11 12 15 17 19 20 21 21 22 22 19 18 16 15 13 12 11 10 10 10 11 11 13 14 15 16 16 16 16 17 17
14 14 13 11 9 8 6 5 5 6 8 9 11 11 12 13 16 20 21 21 22 22 21 19 18 17 16 14 13 11 11 11 11 11 12 14 15 16 16 16 16 17 16 16
14 13 14 13 11 8 7 7 7 7 9 10 13 14 13 14 16 18 20 19 20 21 20 20 19 18 17 15 14 13 12 11 12 13 13 14 16 16 17 17 16 16 15 15
13 13 13 12 11 10 10 9 8 9 10 11 12 13 14 16 18 18 20 19 21 22 21 21 20 19 19 16 15 13 12 12 13 13 14 15 17 17 17 17 17 17 14 14
13 14 15 13 12 12 13 12 11 11 11 11 12 13 15 16 18 19 19 20 21 20 21 21 22 22 19 17 15 14 13 12 13 14 15 16 17 17 17 16 16 16 15 15
11 12 13 12 10 11 12 11 12 11 13 13 13 12 13 15 17 19 21 21 22 22 19 22 22 21 18 17 15 14 13 13 14 15 16 17 18 18 16 16 15 15 16 17

GFSNGP_850_spd_057.txt.gz
Wind_Speed
1 1 3 3 4 7 6 5 6 3 6 7 7 7 13 0 7 9 10 10 11 11 11 12 13 13 14 14 17 17 15 13 11 11 7 7 8 8 8 9 11 13 17 17
3 0 5 4 7 9 9 4 10 7 17 13 17 11 2 3 4 6 6 7 9 8 9 11 13 13 13 11 13 14 13 10 9 8 5 2 2 5 7 8 9 12 16 19
2 3 3 5 10 14 5 5 9 7 10 3 3 6 2 2 4 6 5 6 8 8 8 8 10 11 11 12 11 11 9 8 7 6 6 7 8 9 11 13 17 19 20 17
1 3 1 4 3 8 13 6 12 7 7 6 7 7 3 3 6 5 4 5 5 5 6 8 9 8 9 10 10 8 7 6 6 5 7 9 10 14 17 18 17 16 16 15
1 2 6 1 2 5 6 2 8 12 12 10 5 3 2 2 5 4 3 3 2 2 4 5 6 8 10 8 10 9 7 8 10 9 11 13 16 17 16 15 17 17 16 14
1 2 3 3 1 2 3 1 2 7 6 4 4 1 2 2 4 3 2 2 1 0 1 4 4 6 7 9 11 13 14 14 14 14 15 15 15 16 16 15 15 13 12 10
3 2 6 7 7 2 2 3 2 7 8 7 3 3 3 2 3 2 1 1 1 2 3 4 5 6 6 10 14 16 16 16 16 16 17 16 15 13 12 11 12 13 11 10
3 3 6 5 2 3 1 3 4 6 8 8 8 6 3 2 2 2 3 3 4 5 6 7 7 7 11 15 17 17 17 17 16 15 15 13 12 13 13 12 11 10 8 7
7 5 5 1 4 4 9 16 13 6 6 7 11 10 7 5 3 3 5 6 8 9 10 8 13 11 15 17 16 15 14 15 13 13 14 13 11 10 9 8 7 6 5 5
1 2 7 15 12 12 12 8 7 7 6 7 10 11 11 9 7 6 9 11 12 13 14 16 16 14 15 15 14 13 14 14 13 11 10 10 8 8 7 6 6 5 5 5
4 7 12 14 9 7 8 8 9 9 8 8 11 14 13 13 11 9 10 15 14 15 17 16 14 13 13 13 11 11 11 11 10 8 8 7 6 6 6 5 5 5 6 7
4 4 2 6 6 12 15 12 11 11 9 8 11 15 15 14 14 12 13 15 17 17 16 16 15 14 13 12 11 8 8 8 7 6 5 5 5 5 6 8 10 10 10 9
4 6 10 14 15 11 12 10 10 9 9 8 10 15 16 16 16 16 16 15 17 17 17 16 16 14 12 11 10 8 5 4 4 3 3 3 4 6 8 9 9 9 8 8
8 8 5 2 4 11 11 10 10 10 10 9 11 15 15 16 18 19 19 16 16 16 16 15 14 13 11 10 8 6 4 3 2 1 1 4 6 7 8 8 9 9 9 9
10 9 11 15 15 11 9 10 11 12 11 11 12 15 18 20 20 20 20 20 18 17 17 16 14 12 11 9 8 6 4 3 2 1 4 5 6 7 8 9 10 10 10 10
13 15 12 9 10 10 11 10 11 11 11 11 12 15 16 17 17 19 22 22 24 22 20 17 15 12 11 10 8 7 6 3 1 2 4 6 6 8 9 10 11 11 11 11
11 11 13 14 13 13 14 12 12 11 11 11 11 13 15 17 18 21 23 23 21 19 18 17 15 14 12 10 9 7 5 3 3 4 5 6 7 8 10 11 12 11 11 12
9 11 11 13 16 17 15 15 17 14 12 11 12 14 16 19 21 22 23 24 23 21 21 19 17 14 12 10 8 7 6 5 5 6 7 7 8 10 11 12 13 12 12 12
5 7 8 9 10 12 13 12 12 14 13 12 14 14 14 16 17 18 19 23 24 24 22 22 19 16 13 11 9 8 8 8 7 7 8 8 8 10 12 13 13 13 13 13
3 4 5 5 4 7 6 6 7 9 10 11 12 13 15 16 17 18 19 22 21 21 21 21 20 16 14 12 11 11 10 10 9 8 8 8 9 11 13 14 14 14 14 15
7 7 7 6 6 6 6 3 0 2 5 8 9 10 11 11 13 16 20 22 22 22 22 21 20 18 15 14 14 13 12 11 10 9 9 9 10 12 13 14 15 15 15 16
9 10 10 8 7 7 5 4 2 3 4 5 8 10 11 12 13 16 18 19 18 21 24 23 21 19 17 16 15 14 13 12 10 10 10 10 11 13 14 15 16 16 16 16
8 9 9 10 9 7 6 4 4 4 5 5 7 9 10 10 12 15 16 17 19 23 23 22 21 20 19 18 17 15 14 12 11 10 10 11 12 13 14 16 16 16 16 15
9 10 9 9 8 8 6 6 5 5 6 7 9 9 12 12 13 13 14 13 15 19 21 21 22 21 21 19 18 16 14 12 11 11 11 12 12 14 15 16 16 16 15 14
9 9 10 9 8 8 8 7 8 8 7 7 8 9 11 13 14 14 15 15 16 20 20 21 22 22 22 20 18 16 14 13 12 11 12 13 13 15 16 17 16 16 15 14
9 10 10 10 11 11 12 11 9 8 8 7 8 9 10 12 14 15 16 17 17 19 21 22 23 24 23 20 18 16 15 13 12 12 13 14 14 16 17 16 16 16 15 15
8 9 10 10 10 12 12 12 11 10 10 10 9 9 10 11 12 14 16 18 19 22 20 23 22 23 22 20 19 17 15 13 12 12 13 14 15 16 17 16 15 15 14 16

GFSNGP_850_spd_060.txt.gz
Wind_Speed
1 1 2 3 6 12 8 5 5 1 5 4 6 7 7 2 1 3 3 2 4 4 4 4 4 7 9 9 11 13 13 12 10 10 10 9 9 7 7 7 6 7 9 10
0 0 5 5 9 9 13 13 12 13 18 15 7 3 3 4 3 3 2 1 2 2 2 4 5 8 9 10 11 11 12 13 12 10 9 7 5 5 5 5 3 2 6 8
1 2 3 8 15 17 10 9 12 10 8 5 4 5 4 5 4 2 2 1 1 1 2 3 5 7 8 9 9 9 10 10 10 9 8 7 7 6 6 7 9 14 16 16
1 1 4 2 2 4 16 9 15 11 13 11 7 4 2 3 2 1 2 3 2 1 1 3 5 6 7 7 7 7 7 8 8 8 8 9 10 12 14 14 13 12 13 13
2 3 6 2 3 5 6 0 13 17 15 9 4 4 4 4 2 2 2 3 2 2 0 2 3 5 6 6 7 8 9 11 12 12 15 15 16 15 14 13 12 12 11 10
1 3 3 4 3 3 4 4 5 9 6 3 6 3 3 5 2 1 1 3 3 2 1 1 3 4 4 7 10 11 12 14 14 14 14 14 14 14 13 12 12 9 8 8
5 4 5 4 4 1 3 4 1 3 5 5 4 1 5 3 3 3 2 2 3 4 3 2 3 5 8 12 14 14 15 16 17 16 16 15 14 13 12 11 11 10 9 8
5 5 6 3 4 3 1 2 3 6 5 6 7 7 7 5 4 3 2 3 6 6 6 5 6 8 11 15 17 16 16 16 15 15 14 13 12 12 11 9 8 7 6 4
7 3 1 2 2 5 8 11 12 8 5 4 9 12 11 10 7 5 4 6 9 9 9 9 12 12 16 18 16 14 13 13 13 12 12 12 10 9 8 7 6 4 4 4
3 4 11 13 10 3 10 9 5 5 7 6 8 12 13 12 9 7 7 9 11 12 13 15 15 14 13 15 14 12 12 12 11 9 9 8 7 6 5 4 3 3 4 5
9 9 9 13 6 7 9 9 8 8 7 7 8 11 15 14 12 10 10 13 15 15 17 17 15 13 14 13 13 11 10 9 8 7 7 6 4 4 3 2 3 4 5 5
6 6 5 4 3 4 13 17 11 9 8 7 8 12 16 16 14 13 14 15 18 18 17 16 15 15 14 13 12 10 9 8 7 6 5 3 3 3 4 5 6 6 7 7
7 6 8 9 8 5 7 10 9 9 7 7 7 11 15 17 17 16 17 17 18 19 18 18 18 17 15 13 12 10 8 6 5 4 2 1 1 3 5 6 8 9 8 8
9 8 7 7 2 8 11 10 9 9 9 9 9 10 14 18 19 21 20 18 18 20 20 19 18 17 15 13 11 10 9 7 5 4 2 1 2 3 5 6 8 9 9 9
9 9 10 12 15 13 12 10 10 10 11 11 11 12 16 20 21 21 21 21 21 20 20 21 20 18 16 14 12 11 9 7 6 5 3 3 3 4 6 7 8 8 9 9
9 12 13 14 14 13 11 12 13 11 11 11 12 13 16 18 20 21 23 25 27 28 24 21 20 18 16 15 13 12 10 8 7 6 5 4 4 5 7 8 9 10 10 10
9 10 9 12 12 13 14 15 16 15 13 11 11 12 15 18 20 22 24 27 27 25 23 21 19 18 17 16 14 13 12 11 9 8 6 5 5 6 8 9 10 11 12 12
9 9 9 11 12 13 14 15 16 17 18 12 13 14 17 20 22 23 24 26 28 26 25 24 22 20 18 18 16 15 14 12 10 8 7 6 7 8 9 10 11 12 13 13
6 7 8 9 10 10 13 13 13 14 16 16 15 15 15 16 18 19 22 26 28 29 28 25 24 23 21 19 18 17 15 13 11 9 8 8 9 10 10 11 13 14 14 14
0 2 4 5 4 6 7 7 7 9 11 13 13 14 15 16 16 18 21 25 27 30 28 26 26 25 23 21 20 17 16 14 12 11 10 10 10 11 12 13 14 15 15 15
3 3 4 4 4 5 6 5 3 2 4 7 10 11 11 13 15 17 20 23 23 24 25 26 23 24 26 23 21 19 17 15 14 13 12 12 12 12 13 14 15 16 16 16
5 6 7 7 5 5 6 5 4 3 4 7 9 9 11 12 14 16 17 19 17 21 23 24 25 27 26 23 21 19 18 16 15 15 13 13 13 13 14 15 16 16 17 17
5 6 7 7 6 6 6 6 6 5 5 6 6 9 11 12 13 15 17 16 18 22 24 25 25 25 25 25 21 20 18 17 16 15 14 14 13 14 14 15 17 17 17 17
6 7 7 7 8 7 7 6 6 6 6 7 7 9 11 13 14 14 15 16 16 20 20 22 24 26 27 25 22 21 19 18 17 16 15 14 14 15 15 16 17 18 18 17
7 8 8 8 7 7 8 9 8 7 7 7 7 8 10 11 14 14 15 18 19 19 20 21 24 25 28 25 22 21 20 18 18 17 16 15 15 15 16 17 18 18 18 17
7 7 7 8 10 11 11 11 10 9 9 8 8 8 9 10 12 13 14 16 18 21 21 22 25 27 28 25 22 21 20 19 19 17 16 15 14 15 17 18 18 18 18 17
6 7 7 8 9 10 11 12 12 11 11 11 10 9 10 9 10 11 12 15 18 21 22 22 25 27 27 24 22 21 22 21 20 18 17 14 15 16 17 19 19 18 18 17

GFSNGP_850_spd_066.txt.gz
Wind_Speed
2 2 2 4 5 7 6 5 4 2 2 11 8 7 8 10 10 9 8 8 7 7 7 7 6 4 4 3 3 3 3 4 5 5 4 4 3 2 2 5 10 11 11 9
3 1 3 4 7 8 8 9 9 7 7 5 8 9 9 10 11 9 9 11 10 9 8 7 8 5 4 4 4 4 4 5 4 4 4 5 6 8 10 13 13 12 11 11
1 2 4 6 12 13 7 7 10 9 8 3 4 5 4 4 8 9 11 11 9 9 9 9 7 4 4 6 5 4 3 1 2 3 6 8 10 11 13 14 13 14 13 12
2 2 1 5 3 3 14 9 9 6 8 5 5 6 6 7 8 9 9 10 10 9 8 6 4 4 6 5 4 2 1 3 4 6 9 11 12 13 14 13 13 13 13 12
2 4 6 6 4 3 6 9 12 12 7 10 4 4 5 9 9 8 7 6 7 10 9 8 8 6 6 5 2 3 6 8 10 11 12 13 14 15 15 13 13 13 12 10
2 1 3 3 4 1 2 2 4 13 7 6 10 2 2 14 8 5 6 7 8 10 12 10 7 7 7 5 5 8 10 11 12 12 14 14 14 14 13 10 10 10 9 9
4 2 5 5 7 2 2 3 7 6 2 5 4 3 9 11 7 5 6 8 9 8 8 8 9 8 7 6 9 11 11 12 14 14 13 12 12 12 10 9 9 8 7 7
4 3 7 8 2 1 3 9 6 3 2 3 4 7 9 9 9 8 7 7 8 8 9 8 7 7 9 10 13 14 14 13 13 12 11 10 9 8 8 6 5 5 5 6
6 4 4 8 5 6 5 5 3 6 3 3 5 8 10 12 11 9 7 6 7 9 10 9 8 9 11 14 16 14 13 11 10 10 9 7 6 5 4 3 3 3 5 7
3 5 7 8 9 6 5 4 4 3 0 2 5 6 11 12 13 11 10 8 10 11 12 10 11 13 14 15 14 14 12 11 9 8 7 5 4 2 1 1 2 4 6 7
5 7 5 5 11 15 9 5 3 1 3 4 5 8 9 11 14 14 12 11 11 10 12 13 15 16 16 15 14 13 12 11 9 7 6 4 2 2 1 3 5 6 7 8
4 4 3 4 12 12 9 6 6 6 6 7 7 7 10 11 12 15 14 13 13 12 13 17 18 18 17 16 15 14 12 10 8 7 6 5 4 4 3 4 5 7 8 9
0 3 5 5 4 5 4 6 8 8 8 8 9 8 10 11 13 14 16 15 16 14 13 17 18 18 18 17 17 15 13 11 9 9 8 7 6 6 5 6 7 7 8 9
10 9 5 7 4 8 7 7 8 8 8 8 9 9 9 13 15 15 17 16 16 16 16 17 19 19 19 18 17 15 14 12 11 11 10 9 9 8 8 8 9 9 9 11
11 9 7 7 7 7 9 9 9 9 8 9 9 10 11 13 18 18 15 18 19 19 19 19 19 19 19 19 18 17 16 14 13 12 12 11 10 9 9 10 10 10 12 13
12 13 8 8 7 9 11 11 12 12 11 11 13 12 11 13 16 19 18 20 23 25 23 22 20 19 19 20 19 19 17 16 15 14 13 12 11 11 11 11 11 11 12 14
10 7 7 8 8 8 9 11 12 14 15 15 15 14 14 12 15 19 20 20 21 23 24 24 23 19 19 20 20 19 18 17 17 16 15 14 13 13 13 13 13 13 13 14
8 7 6 8 9 10 10 11 12 13 15 16 16 15 17 16 15 17 19 18 20 24 26 25 25 24 22 22 21 21 20 19 18 17 16 16 15 15 15 14 14 14 15 15
7 8 8 6 7 9 9 10 11 12 13 14 15 16 15 16 15 16 16 18 21 24 26 27 28 27 24 24 23 22 22 21 20 19 18 18 18 17 16 16 15 16 16 17
1 0 2 3 4 5 5 7 9 8 8 9 10 11 12 13 13 14 15 17 18 20 20 23 28 29 28 27 27 24 22 23 22 21 20 20 19 18 17 17 17 17 17 18
5 5 5 4 3 3 4 6 7 7 6 6 6 6 8 10 11 13 14 16 15 17 18 20 23 27 30 31 31 29 27 26 25 23 22 22 20 20 18 17 17 17 18 19
3 2 3 3 3 3 5 6 7 7 7 6 6 6 8 9 10 12 14 16 15 17 17 19 20 21 23 27 31 34 32 28 25 24 24 23 22 21 19 18 18 18 18 19
2 2 4 4 4 5 6 7 8 7 7 7 7 7 8 8 9 11 10 11 11 13 14 15 15 16 18 24 27 30 33 31 28 25 25 24 23 21 20 19 18 18 18 20
1 3 5 6 6 6 6 7 8 8 8 7 7 8 8 8 8 9 10 12 12 14 14 14 14 14 17 21 24 27 29 29 27 24 24 24 24 23 21 19 18 16 19 21
3 5 6 5 5 6 7 8 8 8 8 9 9 8 8 8 9 9 10 11 12 12 13 13 12 14 18 22 24 26 27 28 24 24 25 25 25 24 21 19 19 16 21 22
6 7 8 7 7 7 8 9 9 10 10 9 9 9 9 9 9 10 10 10 10 11 11 12 13 16 19 22 24 25 25 25 26 28 27 21 25 24 21 19 19 18 24 22
8 9 7 7 6 7 9 10 10 10 11 11 11 11 10 9 9 10 10 10 11 11 11 11 12 14 16 19 22 22 22 25 26 26 24 22 24 23 22 19 21 20 23 21

GFSNGP_850_spd_072.txt.gz
Wind_Speed
5 4 4 5 6 10 10 11 8 7 7 6 10 10 19 25 22 22 21 20 18 17 16 15 13 11 11 11 10 9 9 9 10 10 10 8 8 6 4 2 1 3 4 5
3 4 4 3 7 9 12 5 7 5 5 7 13 11 14 21 20 22 24 22 20 18 18 18 16 13 13 12 10 10 9 9 9 9 7 5 3 3 4 4 5 7 8 8
4 1 3 6 13 15 7 7 13 9 13 2 6 14 19 21 24 25 24 23 21 20 18 18 17 15 13 12 12 11 10 10 9 7 5 4 4 6 7 7 7 7 10 10
1 3 2 6 3 5 15 7 10 4 6 8 9 16 25 21 23 22 21 19 19 17 17 17 16 15 14 13 12 12 11 10 8 6 6 7 8 8 9 9 9 10 10 9
3 3 7 4 4 6 7 8 14 15 8 10 6 11 9 17 16 15 15 13 13 14 16 17 16 15 14 13 12 11 10 9 8 8 8 10 11 11 10 10 8 8 8 7
2 1 5 4 1 4 4 5 6 16 9 8 13 5 4 17 16 15 14 12 12 13 15 16 15 15 13 12 11 10 10 10 10 10 11 13 13 11 10 8 7 6 4 3
5 4 7 7 4 7 3 4 2 15 21 19 5 9 12 13 18 15 13 12 12 13 14 14 14 14 13 11 10 9 10 12 12 13 14 14 12 10 8 6 5 3 2 3
3 4 8 4 3 5 3 1 2 5 14 20 16 11 10 12 17 16 14 13 12 12 14 14 15 15 13 12 11 12 14 14 16 16 14 12 11 9 7 4 2 0 1 3
7 5 5 9 4 8 7 4 1 4 9 10 12 11 12 15 16 16 14 13 12 11 11 13 13 13 13 13 13 15 16 17 16 15 14 12 10 8 6 4 3 2 3 4
2 5 7 12 12 7 8 5 3 2 6 7 6 6 10 13 16 16 16 14 12 12 10 12 13 13 13 13 16 17 18 18 17 15 14 12 11 9 7 6 4 4 4 5
4 5 6 8 14 14 12 8 7 6 5 5 6 9 11 12 13 16 17 17 14 12 11 11 13 14 15 16 19 20 18 17 16 15 14 12 11 9 8 7 7 6 6 6
5 9 6 10 11 17 15 12 10 8 7 6 6 7 9 11 11 14 17 18 17 16 15 14 14 14 16 19 20 19 19 18 17 15 14 13 12 11 10 9 8 7 7 6
6 9 8 3 2 8 15 13 11 9 9 9 10 11 10 10 12 11 13 17 18 17 15 14 13 15 17 20 21 21 20 18 18 17 16 15 14 13 12 10 10 8 8 7
14 14 8 12 6 10 11 11 10 9 9 10 10 10 11 11 12 14 13 11 13 17 17 16 16 17 18 20 22 22 21 19 19 17 17 17 16 14 14 12 11 11 10 9
13 16 8 10 13 12 12 10 9 9 9 9 10 10 11 12 13 13 11 12 13 16 19 20 20 18 19 22 24 24 23 22 21 20 19 18 18 17 16 15 13 13 13 12
15 11 10 10 10 10 10 9 9 10 11 11 11 11 12 12 12 13 15 16 18 19 18 21 22 19 18 22 23 24 24 23 22 22 21 21 20 19 18 17 16 15 15 13
17 12 12 11 11 11 10 10 11 11 12 14 15 15 16 16 16 16 17 16 17 17 17 19 20 19 20 21 24 25 26 26 26 25 25 23 21 20 19 18 18 17 15 14
12 9 10 11 13 12 11 10 11 12 13 14 14 15 16 18 19 18 18 16 17 18 19 18 18 19 20 21 24 26 27 27 28 27 25 24 23 21 21 20 19 18 16 16
7 7 8 8 7 8 8 8 9 10 12 13 14 14 17 17 18 18 18 19 18 19 16 16 17 19 22 23 25 26 28 29 30 30 28 25 25 24 23 22 21 19 18 18
5 6 7 6 6 6 6 6 7 6 8 9 10 10 10 10 12 14 15 17 16 16 15 16 18 20 21 23 25 28 29 31 32 32 30 30 28 26 24 23 22 21 20 19
7 7 6 6 5 4 3 1 2 4 6 6 6 6 7 7 8 9 11 13 12 15 15 16 17 19 19 21 24 28 30 32 33 34 35 34 32 30 28 24 24 22 21 21
13 10 7 5 3 1 1 3 4 5 6 6 7 7 7 7 6 7 9 10 11 14 15 16 17 18 19 20 22 25 28 30 31 32 34 36 35 32 31 28 24 24 23 22
5 4 3 1 1 2 3 4 5 5 6 6 7 7 7 7 7 7 7 8 9 11 11 11 13 14 15 17 19 21 23 25 27 29 31 33 34 33 33 34 27 25 23 23
4 2 0 1 2 3 4 5 5 5 6 7 7 8 8 6 7 7 8 9 10 10 10 10 12 13 14 17 18 18 20 21 23 24 25 27 29 31 33 33 29 30 23 23
3 2 2 4 5 5 4 4 5 5 6 6 7 8 8 9 8 8 9 9 10 10 10 10 10 11 12 13 15 15 16 17 18 20 22 23 25 26 28 29 30 29 27 23
5 5 5 6 7 6 5 6 6 6 6 7 7 7 8 8 9 9 9 10 10 10 10 10 11 11 11 12 14 14 15 16 17 18 19 20 22 24 25 27 30 29 27 25
10 9 8 9 8 7 7 7 7 7 8 8 8 8 9 10 10 10 10 10 10 11 11 11 11 11 12 13 14 14 14 14 15 16 18 19 19 21 24 25 26 24 27 25

GFSNGP_850_spd_075.txt.gz
Wind_Speed
5 6 5 5 7 16 21 18 8 5 8 7 6 9 16 25 25 24 23 22 21 19 17 16 15 13 12 11 11 10 10 10 10 10 11 11 10 9 7 6 4 2 2 3
3 4 6 5 7 10 17 15 14 17 9 7 8 8 15 23 24 25 25 24 22 20 18 18 17 15 13 12 12 11 11 11 10 10 10 9 7 5 5 4 4 5 5 6
4 3 2 6 15 14 7 9 11 9 18 2 5 9 20 24 25 26 25 24 23 22 20 18 18 16 15 14 13 13 12 12 11 10 8 6 5 5 5 6 6 6 7 8
2 2 2 7 3 7 16 16 13 12 5 9 12 17 21 26 28 25 24 22 21 20 19 18 18 18 16 15 14 14 13 13 12 9 7 7 7 7 8 7 7 8 8 7
3 3 7 6 2 5 6 6 15 17 15 15 8 6 10 21 27 22 17 17 16 16 16 17 17 17 16 15 15 15 15 13 11 9 8 9 9 9 9 10 8 6 6 6
3 2 5 4 3 4 3 5 4 14 11 9 10 5 4 14 19 16 16 16 14 13 14 15 16 16 16 15 14 14 14 13 11 10 10 11 11 11 11 9 8 6 3 3
5 3 7 7 6 6 2 5 7 5 15 15 5 7 13 12 16 15 14 14 12 11 10 11 14 15 15 15 14 12 12 12 12 12 12 13 14 12 10 8 6 4 2 1
3 4 8 5 4 5 4 3 6 8 8 18 16 8 7 9 14 16 17 14 11 10 10 11 13 14 15 15 13 12 12 13 13 14 16 15 13 11 10 7 5 3 2 1
7 6 4 5 7 4 8 4 3 2 2 9 14 12 8 9 9 14 14 12 11 11 10 11 13 14 15 14 14 13 14 15 16 17 16 14 13 11 9 6 5 4 4 4
3 5 9 17 11 12 6 5 2 2 3 6 2 4 5 7 12 14 15 13 12 13 12 12 13 14 14 15 16 14 16 17 18 18 16 15 13 11 9 8 7 6 6 6
4 5 4 8 11 14 10 7 5 3 3 4 5 6 7 8 8 11 13 14 15 14 13 12 12 14 14 14 14 17 18 19 19 18 16 15 13 12 11 10 9 8 8 7
5 11 9 10 10 11 13 11 7 6 4 2 2 3 5 8 11 12 12 14 17 16 16 14 14 14 14 14 16 18 20 21 19 18 17 16 15 13 12 12 11 10 10 9
6 9 10 5 3 5 12 12 10 8 7 6 6 7 8 8 8 10 11 14 17 16 16 15 15 15 15 16 18 20 21 20 20 20 19 17 17 16 14 13 13 13 12 11
9 8 7 10 5 6 8 12 11 10 9 8 8 8 9 10 11 11 11 10 11 13 16 17 17 17 16 17 20 22 21 22 21 20 20 19 18 17 16 16 15 14 14 14
10 14 9 8 10 10 10 10 10 8 8 8 9 9 10 11 12 12 10 12 13 14 13 17 20 18 16 17 21 23 24 25 23 22 22 20 19 19 19 19 19 17 17 16
12 15 10 9 12 11 11 10 9 8 8 9 10 10 11 12 12 12 13 14 17 18 14 15 17 17 18 19 19 22 25 25 25 25 24 24 23 22 22 22 21 20 20 17
15 13 13 13 12 12 11 10 9 9 9 10 12 13 15 16 17 16 15 15 16 16 17 18 16 15 18 20 20 22 25 26 27 28 28 26 26 25 24 23 23 23 21 18
12 9 11 9 11 11 10 8 7 8 9 11 11 12 14 15 17 18 18 18 19 19 19 18 17 17 18 20 22 23 26 27 29 31 29 29 28 27 26 25 25 24 22 21
6 5 5 5 7 9 8 7 8 9 10 11 12 13 14 15 17 18 18 20 20 20 17 16 17 18 19 20 22 25 27 28 30 33 32 31 30 30 28 28 27 26 24 23
4 4 4 4 4 5 6 6 6 7 7 8 10 11 11 11 11 12 13 14 15 16 16 15 17 18 18 19 21 24 27 29 31 32 34 34 34 34 31 30 30 29 25 26
4 4 3 3 3 4 4 3 1 2 4 7 8 8 8 8 10 10 9 10 11 13 14 15 16 18 18 19 21 25 26 28 31 32 33 35 35 37 39 39 37 37 35 29
12 12 12 9 5 3 1 2 3 4 6 7 8 8 9 9 9 10 8 8 9 12 13 14 16 17 18 20 20 22 24 26 28 29 31 32 33 34 36 37 37 36 36 37
6 5 4 3 1 1 2 4 5 5 6 7 7 8 8 8 8 8 7 9 10 11 11 12 13 14 16 17 18 19 21 21 23 25 26 28 29 31 32 34 34 35 35 35
3 2 1 2 3 3 4 5 5 6 6 7 7 8 8 8 8 8 9 10 11 10 10 10 11 12 14 15 16 17 17 18 19 20 22 23 24 26 27 28 29 31 33 33
3 2 2 3 4 5 5 5 5 6 6 7 7 8 9 9 9 9 9 10 10 10 10 11 11 11 11 12 13 13 14 15 16 17 18 19 21 22 23 24 26 27 29 30
7 5 5 5 6 6 6 6 6 6 6 7 8 8 8 9 10 10 10 10 10 11 11 11 11 11 12 12 13 13 14 14 15 16 17 18 19 20 21 22 23 24 27 28
11 11 10 9 8 8 8 7 7 7 7 8 8 8 9 10 10 11 11 11 11 11 12 12 12 12 12 13 13 14 14 15 16 17 17 20 20 20 21 21 22 23 23 24

GFSNGP_850_spd_078.txt.gz
Wind_Speed
5 4 4 6 9 14 19 18 12 1 14 13 13 6 11 14 17 24 27 27 26 23 21 19 18 16 14 12 11 11 12 12 12 11 12 12 12 11 10 9 7 5 4 4
3 2 6 5 8 12 19 21 22 23 27 14 16 16 11 18 24 29 30 28 26 23 22 20 19 16 13 13 12 12 12 12 12 11 11 11 10 9 7 6 6 5 5 5
4 3 4 6 15 16 8 8 19 19 26 3 6 11 16 18 23 30 31 28 26 24 22 21 19 17 16 14 14 13 13 13 12 12 11 9 8 7 7 7 7 6 6 7
2 2 3 7 2 5 13 15 14 13 13 10 15 21 16 14 23 29 28 26 24 22 21 19 18 18 17 16 14 14 13 13 13 13 11 9 8 8 9 8 8 9 9 8
3 3 6 9 2 5 7 6 11 19 20 20 17 14 17 17 19 27 26 22 18 17 17 16 17 18 18 17 16 15 14 14 14 12 10 9 9 10 11 10 10 9 8 6
3 4 5 5 2 5 3 5 2 5 11 8 11 7 6 15 16 21 21 17 14 13 15 16 16 17 17 16 16 15 14 14 13 12 11 11 11 12 12 12 10 9 6 5
5 4 6 8 7 4 2 5 3 5 10 10 6 11 9 10 12 15 15 14 13 13 12 11 13 15 15 15 15 13 13 13 12 12 12 11 13 14 14 12 11 8 6 4
3 4 7 8 5 6 5 4 5 8 9 8 13 10 6 7 10 12 13 14 15 13 11 10 11 13 13 13 12 13 13 12 12 12 13 14 16 16 15 12 10 8 6 4
7 6 3 13 6 11 6 7 5 5 4 4 10 8 3 4 7 9 11 13 12 12 11 11 10 11 12 12 13 13 13 11 12 14 15 16 16 15 13 12 10 8 6 4
3 5 8 14 13 12 13 7 4 3 1 5 5 4 3 3 6 8 8 10 11 11 11 11 10 10 11 13 13 14 14 13 15 16 18 18 16 16 15 12 10 8 6 6
3 6 5 9 10 9 11 9 6 2 2 3 2 2 2 3 3 4 5 8 11 12 12 12 11 10 12 13 14 15 14 15 17 18 20 17 17 15 13 12 11 9 8 8
6 11 8 11 9 8 12 13 7 6 5 4 3 1 1 3 5 7 8 9 11 11 13 14 13 11 12 13 14 14 15 18 19 20 20 18 18 16 16 14 13 11 11 10
5 8 12 6 5 5 9 12 10 9 6 4 3 3 4 4 6 7 9 11 12 11 12 14 14 13 13 13 14 14 16 18 19 21 21 20 20 19 18 16 15 14 13 11
6 6 6 9 6 6 4 9 11 9 7 5 4 4 5 6 7 8 8 9 10 11 12 13 15 16 14 14 14 15 17 18 20 21 21 20 20 19 18 19 18 15 14 14
10 12 10 6 10 7 7 8 8 6 5 4 5 6 7 8 8 8 9 11 12 13 12 12 14 15 15 16 17 17 18 21 22 22 22 21 22 22 21 21 21 19 18 18
5 7 9 6 8 9 8 7 7 6 5 5 6 7 9 10 11 11 11 11 13 14 13 13 14 13 13 17 18 18 18 21 24 25 25 25 25 25 24 24 24 23 22 20
11 11 11 10 9 9 7 6 5 5 5 5 7 9 11 14 14 15 15 14 15 14 15 16 16 15 15 17 19 20 20 20 24 26 28 28 27 27 27 26 26 25 24 21
7 5 5 7 8 9 8 7 7 7 7 8 9 9 10 13 14 14 15 16 18 18 17 17 16 16 18 18 18 20 22 23 24 29 30 30 30 29 29 29 28 27 25 23
4 4 3 5 6 8 7 6 6 7 8 9 10 11 12 13 15 15 16 14 14 17 16 17 16 17 18 18 18 19 22 24 25 26 30 31 32 32 32 31 30 29 28 27
3 3 4 4 4 4 4 5 6 7 7 6 5 7 8 9 9 10 11 10 11 12 13 14 15 15 16 17 19 20 21 23 25 27 28 31 33 34 35 34 34 33 34 33
2 3 3 3 2 3 2 2 1 1 2 5 7 8 8 8 9 9 9 9 9 10 12 12 13 14 15 16 18 20 21 23 25 27 28 29 30 31 32 34 35 37 38 39
8 9 9 8 7 4 1 2 4 6 7 7 8 8 9 9 9 9 9 8 9 9 10 11 12 15 16 17 17 19 20 22 23 24 25 26 27 28 29 29 31 32 34 35
7 5 3 1 0 2 3 4 6 6 7 7 8 8 9 9 9 8 7 9 10 11 10 10 11 11 12 13 15 16 17 18 19 20 21 22 22 23 25 26 27 28 29 29
2 1 1 2 3 4 5 6 6 6 6 7 7 8 9 8 9 9 10 11 12 11 11 11 11 11 11 11 12 12 13 15 16 17 18 19 20 21 22 23 24 25 26 26
5 3 2 3 4 6 7 7 7 7 7 8 9 9 9 9 9 9 10 10 11 11 11 11 11 12 12 12 12 12 12 13 13 15 16 17 18 19 19 20 21 22 23 24
7 7 6 7 7 8 8 8 7 8 8 8 9 9 9 10 11 11 11 12 12 12 12 12 12 12 12 12 12 13 13 14 15 16 17 19 20 19 19 20 21 22 22 23
11 12 12 12 11 11 11 10 9 9 9 9 9 10 10 11 12 12 12 12 12 13 13 13 13 13 14 14 14 15 15 16 16 17 18 19 19 20 20 21 22 22 22 22

GFSNGP_850_spd_081.txt.gz
Wind_Speed
5 4 4 5 7 13 15 17 11 3 19 17 19 15 9 11 12 15 22 27 28 26 24 21 20 18 17 15 14 13 13 12 13 13 13 13 12 12 12 11 10 9 8 7
4 4 6 4 7 9 18 20 20 23 25 19 24 22 21 23 18 21 25 31 31 28 25 23 21 20 17 16 15 14 14 13 13 13 13 13 11 11 10 8 8 8 7 6
3 0 1 4 14 18 10 8 18 17 24 9 11 11 22 28 26 30 31 32 32 30 26 24 22 20 19 18 17 16 14 14 13 14 13 12 11 9 7 7 6 7 7 6
2 1 4 6 2 8 15 16 15 11 18 15 17 25 29 26 18 17 22 25 31 28 25 23 21 20 19 20 18 17 15 15 14 14 14 12 11 9 8 8 8 8 8 9
3 3 5 8 2 5 7 8 12 19 18 23 19 16 27 24 21 20 18 20 25 24 20 20 20 20 21 21 20 18 17 16 15 15 15 13 11 10 11 11 10 11 11 10
3 4 5 5 2 5 3 5 2 6 7 9 5 4 6 10 21 20 17 21 22 18 18 19 19 18 20 20 20 19 16 15 15 14 13 12 12 12 13 13 13 12 11 10
4 4 6 7 6 8 2 4 3 5 9 7 5 11 6 7 11 15 14 17 20 18 15 14 14 15 17 18 18 15 15 15 15 14 13 12 13 14 15 17 15 14 11 9
4 3 8 10 7 7 5 2 5 7 8 8 7 7 8 6 4 8 13 16 17 16 15 13 12 12 14 15 14 16 16 15 14 13 13 15 15 17 19 18 16 13 11 9
7 6 2 16 5 15 6 6 4 6 6 2 4 3 1 1 5 7 9 11 12 13 12 12 10 10 11 12 16 15 15 14 13 13 14 15 17 19 20 18 16 14 11 10
1 5 7 11 16 12 11 12 7 5 3 1 2 4 3 3 4 5 7 9 11 12 10 10 9 9 10 13 14 15 15 14 13 15 16 17 19 19 18 18 16 13 12 11
5 6 7 9 16 14 11 13 10 6 3 4 3 3 3 3 4 5 6 6 7 8 9 10 11 10 11 13 14 15 15 14 14 16 17 19 20 18 17 16 14 13 12 12
4 6 5 8 8 6 11 12 11 8 6 5 4 3 2 1 3 6 7 7 7 8 9 10 11 11 11 12 13 14 15 15 15 18 18 20 19 19 19 18 17 15 14 13
6 13 14 11 5 6 5 8 10 9 7 5 4 2 1 0 1 3 5 8 10 9 9 12 12 13 13 12 12 13 14 14 16 18 20 21 21 21 20 18 18 16 15 14
13 15 10 9 5 5 3 6 10 11 8 6 4 3 3 3 4 4 4 6 8 10 10 11 12 13 13 14 13 12 12 13 16 18 20 21 21 20 20 20 20 17 16 16
18 13 14 6 5 5 5 7 10 9 7 4 3 3 3 4 5 6 7 8 9 11 11 11 11 11 12 15 15 14 14 14 16 19 20 21 21 22 22 22 22 20 20 20
11 16 10 6 5 6 7 7 7 6 5 4 3 3 5 7 8 10 10 11 10 10 10 12 12 10 12 14 16 16 16 15 16 19 22 24 25 25 25 25 25 24 24 22
11 12 13 10 8 8 7 6 5 4 4 4 4 4 6 7 10 12 12 13 14 13 13 13 12 13 15 16 16 17 18 18 18 19 22 25 26 27 27 26 27 26 25 22
16 10 7 6 9 9 7 6 5 4 4 4 7 9 10 9 9 11 13 14 14 14 14 15 15 14 15 16 17 17 18 19 20 22 21 24 28 30 30 30 30 29 27 25
3 1 2 4 5 6 5 4 3 3 4 6 7 8 8 8 9 10 12 13 11 10 10 13 14 15 16 16 17 17 18 18 19 20 23 24 25 28 31 33 33 32 29 28
2 3 3 4 5 4 4 3 2 3 5 5 4 4 5 6 7 7 8 8 8 8 9 9 11 12 13 14 17 18 18 19 19 20 21 23 25 26 27 29 31 32 33 34
2 2 3 3 4 3 2 3 2 1 2 4 5 7 8 8 9 8 8 7 8 8 9 11 10 10 11 13 15 17 18 19 20 20 21 22 23 24 25 26 27 28 29 31
7 7 8 8 7 6 4 3 3 4 5 5 6 6 7 8 9 9 7 7 8 10 9 9 10 10 11 13 14 15 17 18 19 20 21 22 22 23 24 24 24 24 25 25
8 7 6 5 3 2 3 4 5 5 5 5 6 7 8 8 8 7 6 8 9 9 10 10 10 10 10 9 10 11 12 14 16 17 18 18 19 19 20 21 21 21 22 23
2 1 1 2 3 4 5 5 5 5 5 6 6 7 7 7 8 8 9 10 10 10 10 10 10 10 10 10 10 10 10 11 13 14 15 16 17 17 18 18 19 19 20 20
4 5 4 3 4 5 6 7 6 6 6 6 7 7 7 7 8 9 9 10 10 10 10 10 11 11 11 10 10 10 11 12 13 14 15 15 16 17 17 18 18 18 18 19
9 8 8 8 7 7 8 8 8 8 7 6 7 7 7 8 9 10 11 11 11 12 12 12 12 12 12 12 12 12 12 12 13 13 15 16 16 17 17 17 18 18 19 21
13 13 12 13 11 11 12 12 10 9 9 8 7 8 8 9 10 10 11 11 12 12 13 13 13 14 14 14 14 15 15 16 16 17 17 18 18 18 18 18 18 19 19 19